Time,TemperatureF,DewpointF,PressureIn,WindDirection,WindDirectionDegrees,WindSpeedMPH,WindSpeedGustMPH,Humidity,HourlyPrecipIn,Conditions,Clouds,dailyrainin,SoftwareType,DateUTC
2013-02-07 00:00:00,5.8,-3.7,29.65,NNW,337,17.0,24.0,64,0.00,,---,0.00,VWS V14.01,2013-02-07 09:00:00,
2013-02-07 00:01:00,5.9,-4.0,29.65,NNE,15,22.0,27.0,63,0.00,,---,0.00,VWS V14.01,2013-02-07 09:01:00,
2013-02-07 00:02:00,6.0,-3.9,29.65,NNW,347,20.0,20.0,63,0.00,,---,0.00,VWS V14.01,2013-02-07 09:02:00,
2013-02-07 00:04:00,5.9,-4.3,29.64,North,5,18.0,25.0,62,0.00,,---,0.00,VWS V14.01,2013-02-07 09:04:00,
2013-02-07 00:05:00,6.0,-3.9,29.65,NNW,340,20.0,27.0,63,0.00,,---,0.00,VWS V14.01,2013-02-07 09:05:00,
2013-02-07 00:06:00,5.8,-4.4,29.64,NNW,344,20.0,25.0,62,0.00,,---,0.00,VWS V14.01,2013-02-07 09:06:00,
2013-02-07 00:07:00,5.9,-4.3,29.64,North,355,18.0,26.0,62,0.00,,---,0.00,VWS V14.01,2013-02-07 09:07:00,
2013-02-07 00:10:00,5.9,-4.3,29.64,North,355,18.0,27.0,62,0.00,,---,0.00,VWS V14.01,2013-02-07 09:10:00,
2013-02-07 00:11:00,5.8,-4.4,29.65,North,355,19.0,27.0,62,0.00,,---,0.00,VWS V14.01,2013-02-07 09:11:00,
2013-02-07 00:13:00,5.7,-4.5,29.64,NNE,13,19.0,20.0,62,0.00,,---,0.00,VWS V14.01,2013-02-07 09:13:00,
2013-02-07 00:15:00,6.1,-3.8,29.64,North,360,26.0,28.0,63,0.00,,---,0.00,VWS V14.01,2013-02-07 09:15:00,
2013-02-07 00:16:00,6.2,-3.7,29.64,NW,324,18.0,28.0,63,0.00,,---,0.00,VWS V14.01,2013-02-07 09:16:00,
2013-02-07 00:18:00,6.2,-3.7,29.64,North,355,20.0,21.0,63,0.00,,---,0.00,VWS V14.01,2013-02-07 09:18:00,
2013-02-07 00:20:00,6.2,-3.7,29.64,NNW,338,18.0,27.0,63,0.00,,---,0.00,VWS V14.01,2013-02-07 09:20:00,
2013-02-07 00:21:00,6.3,-3.6,29.64,North,355,14.0,27.0,63,0.00,,---,0.00,VWS V14.01,2013-02-07 09:21:00,
2013-02-07 00:23:00,6.3,-3.6,29.65,NNW,339,19.0,26.0,63,0.00,,---,0.00,VWS V14.01,2013-02-07 09:23:00,
2013-02-07 00:25:00,6.3,-3.6,29.64,NNW,344,20.0,27.0,63,0.00,,---,0.00,VWS V14.01,2013-02-07 09:25:00,
2013-02-07 00:26:00,6.2,-4.0,29.65,North,355,19.0,26.0,62,0.00,,---,0.00,VWS V14.01,2013-02-07 09:26:00,
2013-02-07 00:27:00,6.1,-4.1,29.64,NNW,333,20.0,27.0,62,0.00,,---,0.00,VWS V14.01,2013-02-07 09:27:00,
2013-02-07 00:28:00,6.0,-4.2,29.65,North,355,18.0,23.0,62,0.00,,---,0.00,VWS V14.01,2013-02-07 09:28:00,
2013-02-07 00:30:00,6.1,-4.1,29.64,North,355,18.0,27.0,62,0.00,,---,0.00,VWS V14.01,2013-02-07 09:30:00,
2013-02-07 00:31:00,5.7,-4.5,29.65,NNW,327,11.0,23.0,62,0.00,,---,0.00,VWS V14.01,2013-02-07 09:31:00,
2013-02-07 00:32:00,5.6,-4.6,29.65,NW,323,14.0,16.0,62,0.00,,---,0.00,VWS V14.01,2013-02-07 09:32:00,
2013-02-07 00:33:00,5.4,-4.8,29.65,North,355,13.0,20.0,62,0.00,,---,0.00,VWS V14.01,2013-02-07 09:33:00,
2013-02-07 00:35:00,5.6,-4.6,29.65,NNW,327,15.0,23.0,62,0.00,,---,0.00,VWS V14.01,2013-02-07 09:35:00,
2013-02-07 00:36:00,5.4,-4.4,29.65,NNW,344,12.0,21.0,63,0.00,,---,0.00,VWS V14.01,2013-02-07 09:36:00,
2013-02-07 00:37:00,5.6,-4.3,29.65,NE,34,10.0,19.0,63,0.00,,---,0.00,VWS V14.01,2013-02-07 09:37:00,
2013-02-07 00:38:00,5.6,-3.9,29.65,NW,323,12.0,19.0,64,0.00,,---,0.00,VWS V14.01,2013-02-07 09:38:00,
2013-02-07 00:39:00,5.7,-3.8,29.64,NNW,337,20.0,20.0,64,0.00,,---,0.00,VWS V14.01,2013-02-07 09:39:00,
2013-02-07 00:40:00,5.5,-4.3,29.65,NNW,334,19.0,21.0,63,0.00,,---,0.00,VWS V14.01,2013-02-07 09:40:00,
2013-02-07 00:41:00,5.5,-4.7,29.64,NW,321,22.0,23.0,62,0.00,,---,0.00,VWS V14.01,2013-02-07 09:41:00,
2013-02-07 00:42:00,5.5,-4.3,29.64,NNW,338,22.0,22.0,63,0.00,,---,0.00,VWS V14.01,2013-02-07 09:42:00,
2013-02-07 00:43:00,5.5,-4.3,29.64,North,355,14.0,23.0,63,0.00,,---,0.00,VWS V14.01,2013-02-07 09:43:00,
2013-02-07 00:44:00,5.6,-4.3,29.64,NNW,331,6.0,23.0,63,0.00,,---,0.00,VWS V14.01,2013-02-07 09:44:00,
2013-02-07 00:45:00,5.5,-4.7,29.64,North,350,19.0,23.0,62,0.00,,---,0.00,VWS V14.01,2013-02-07 09:45:00,
2013-02-07 00:46:00,5.6,-4.3,29.65,WNW,302,3.0,23.0,63,0.00,,---,0.00,VWS V14.01,2013-02-07 09:46:00,
2013-02-07 00:47:00,5.6,-4.3,29.65,NW,323,13.0,17.0,63,0.00,,---,0.00,VWS V14.01,2013-02-07 09:47:00,
2013-02-07 00:48:00,5.6,-4.3,29.65,West,275,7.0,17.0,63,0.00,,---,0.00,VWS V14.01,2013-02-07 09:48:00,
2013-02-07 00:49:00,5.6,-4.3,29.65,WNW,295,7.0,17.0,63,0.00,,---,0.00,VWS V14.01,2013-02-07 09:49:00,
2013-02-07 00:50:00,5.7,-4.2,29.65,WNW,288,8.0,23.0,63,0.00,,---,0.00,VWS V14.01,2013-02-07 09:50:00,
2013-02-07 00:51:00,5.5,-4.3,29.65,WNW,289,6.0,17.0,63,0.00,,---,0.00,VWS V14.01,2013-02-07 09:51:00,
2013-02-07 00:53:00,5.1,-5.1,29.65,West,267,5.0,18.0,62,0.00,,---,0.00,VWS V14.01,2013-02-07 09:53:00,
2013-02-07 00:54:00,4.9,-5.2,29.65,NNW,329,16.0,18.0,62,0.00,,---,0.00,VWS V14.01,2013-02-07 09:54:00,
2013-02-07 00:55:00,5.4,-4.4,29.65,NW,306,3.0,17.0,63,0.00,,---,0.00,VWS V14.01,2013-02-07 09:55:00,
2013-02-07 00:56:00,4.5,-5.6,29.65,NNW,346,12.0,18.0,62,0.00,,---,0.00,VWS V14.01,2013-02-07 09:56:00,
2013-02-07 00:58:00,4.1,-6.0,29.64,NNW,331,18.0,19.0,62,0.00,,---,0.00,VWS V14.01,2013-02-07 09:58:00,
2013-02-07 01:00:00,4.0,-5.8,29.65,WNW,297,8.0,19.0,63,0.00,,---,0.00,VWS V14.01,2013-02-07 10:00:00,
2013-02-07 01:02:00,3.8,-6.0,29.65,NW,321,13.0,13.0,63,0.00,,---,0.00,VWS V14.01,2013-02-07 10:02:00,
2013-02-07 01:03:00,3.7,-6.1,29.65,North,9,9.0,15.0,63,0.00,,---,0.00,VWS V14.01,2013-02-07 10:03:00,
2013-02-07 01:05:00,3.6,-6.2,29.64,NNW,340,13.0,19.0,63,0.00,,---,0.00,VWS V14.01,2013-02-07 10:05:00,
2013-02-07 01:07:00,3.4,-6.3,29.65,NW,314,7.0,8.0,63,0.00,,---,0.00,VWS V14.01,2013-02-07 10:07:00,
2013-02-07 01:08:00,3.3,-6.4,29.65,WNW,288,5.0,10.0,63,0.00,,---,0.00,VWS V14.01,2013-02-07 10:08:00,
2013-02-07 01:10:00,3.2,-6.5,29.64,North,355,12.0,15.0,63,0.00,,---,0.00,VWS V14.01,2013-02-07 10:10:00,
2013-02-07 01:12:00,3.1,-6.6,29.65,NNW,340,12.0,12.0,63,0.00,,---,0.00,VWS V14.01,2013-02-07 10:12:00,
2013-02-07 01:13:00,3.1,-6.6,29.64,WNW,296,3.0,12.0,63,0.00,,---,0.00,VWS V14.01,2013-02-07 10:13:00,
2013-02-07 01:15:00,3.1,-6.6,29.64,NW,323,7.0,13.0,63,0.00,,---,0.00,VWS V14.01,2013-02-07 10:15:00,
2013-02-07 01:17:00,3.1,-6.6,29.64,NNW,342,13.0,17.0,63,0.00,,---,0.00,VWS V14.01,2013-02-07 10:17:00,
2013-02-07 01:18:00,3.1,-6.6,29.64,NNW,346,10.0,17.0,63,0.00,,---,0.00,VWS V14.01,2013-02-07 10:18:00,
2013-02-07 01:20:00,3.2,-6.5,29.64,NNW,338,13.0,21.0,63,0.00,,---,0.00,VWS V14.01,2013-02-07 10:20:00,
2013-02-07 01:22:00,3.2,-6.5,29.64,NNW,327,10.0,10.0,63,0.00,,---,0.00,VWS V14.01,2013-02-07 10:22:00,
2013-02-07 01:23:00,3.1,-6.6,29.64,NNW,327,6.0,15.0,63,0.00,,---,0.00,VWS V14.01,2013-02-07 10:23:00,
2013-02-07 01:25:00,3.0,-6.7,29.64,NNW,345,12.0,19.0,63,0.00,,---,0.00,VWS V14.01,2013-02-07 10:25:00,
2013-02-07 01:28:00,3.1,-6.6,29.65,WNW,296,6.0,11.0,63,0.00,,---,0.00,VWS V14.01,2013-02-07 10:28:00,
2013-02-07 01:29:00,3.0,-6.7,29.65,WNW,290,4.0,11.0,63,0.00,,---,0.00,VWS V14.01,2013-02-07 10:29:00,
2013-02-07 01:30:00,3.0,-6.7,29.64,North,351,7.0,21.0,63,0.00,,---,0.00,VWS V14.01,2013-02-07 10:30:00,
2013-02-07 01:31:00,3.1,-6.6,29.64,North,355,12.0,14.0,63,0.00,,---,0.00,VWS V14.01,2013-02-07 10:31:00,
2013-02-07 01:33:00,3.2,-6.2,29.64,West,277,6.0,15.0,64,0.00,,---,0.00,VWS V14.01,2013-02-07 10:33:00,
2013-02-07 01:34:00,3.3,-6.1,29.64,NW,309,6.0,15.0,64,0.00,,---,0.00,VWS V14.01,2013-02-07 10:34:00,
2013-02-07 01:35:00,3.1,-6.3,29.64,West,261,9.0,14.0,64,0.00,,---,0.00,VWS V14.01,2013-02-07 10:35:00,
2013-02-07 01:36:00,3.2,-6.5,29.64,WNW,300,7.0,15.0,63,0.00,,---,0.00,VWS V14.01,2013-02-07 10:36:00,
2013-02-07 01:38:00,2.8,-6.9,29.64,NW,307,8.0,11.0,63,0.00,,---,0.00,VWS V14.01,2013-02-07 10:38:00,
2013-02-07 01:39:00,2.6,-7.1,29.64,WNW,297,5.0,11.0,63,0.00,,---,0.00,VWS V14.01,2013-02-07 10:39:00,
2013-02-07 01:40:00,3.1,-6.6,29.64,NW,321,8.0,15.0,63,0.00,,---,0.00,VWS V14.01,2013-02-07 10:40:00,
2013-02-07 01:41:00,2.2,-7.2,29.64,NW,313,8.0,11.0,64,0.00,,---,0.00,VWS V14.01,2013-02-07 10:41:00,
2013-02-07 01:43:00,2.2,-6.8,29.64,NW,322,3.0,11.0,65,0.00,,---,0.00,VWS V14.01,2013-02-07 10:43:00,
2013-02-07 01:44:00,2.3,-6.8,29.64,NW,304,3.0,11.0,65,0.00,,---,0.00,VWS V14.01,2013-02-07 10:44:00,
2013-02-07 01:45:00,2.2,-7.2,29.64,NNW,343,6.0,11.0,64,0.00,,---,0.00,VWS V14.01,2013-02-07 10:45:00,
2013-02-07 01:47:00,3.0,-5.5,29.63,WNW,299,9.0,10.0,67,0.00,,---,0.00,VWS V14.01,2013-02-07 10:47:00,
2013-02-07 01:48:00,3.4,-5.4,29.63,WNW,290,13.0,17.0,66,0.00,,---,0.00,VWS V14.01,2013-02-07 10:48:00,
2013-02-07 01:49:00,3.7,-5.1,29.63,West,274,10.0,17.0,66,0.00,,---,0.00,VWS V14.01,2013-02-07 10:49:00,
2013-02-07 01:50:00,3.0,-5.5,29.63,WNW,299,10.0,15.0,67,0.00,,---,0.00,VWS V14.01,2013-02-07 10:50:00,
2013-02-07 01:52:00,4.1,-5.0,29.64,West,262,9.0,11.0,65,0.00,,---,0.00,VWS V14.01,2013-02-07 10:52:00,
2013-02-07 01:54:00,4.5,-5.0,29.64,WNW,299,10.0,15.0,64,0.00,,---,0.00,VWS V14.01,2013-02-07 10:54:00,
2013-02-07 01:55:00,4.6,-5.2,29.64,WNW,298,14.0,20.0,63,0.00,,---,0.00,VWS V14.01,2013-02-07 10:55:00,
2013-02-07 01:57:00,5.0,-5.2,29.64,WNW,298,9.0,11.0,62,0.00,,---,0.00,VWS V14.01,2013-02-07 10:57:00,
2013-02-07 01:59:00,5.1,-5.4,29.63,WNW,286,15.0,16.0,61,0.00,,---,0.00,VWS V14.01,2013-02-07 10:59:00,
2013-02-07 02:00:00,5.1,-5.7,29.63,WNW,288,10.0,17.0,60,0.00,,---,0.00,VWS V14.01,2013-02-07 11:00:00,
2013-02-07 02:02:00,5.0,-6.2,29.63,WNW,300,14.0,14.0,59,0.00,,---,0.00,VWS V14.01,2013-02-07 11:02:00,
2013-02-07 02:04:00,4.7,-6.5,29.63,WNW,282,12.0,18.0,59,0.00,,---,0.00,VWS V14.01,2013-02-07 11:04:00,
2013-02-07 02:05:00,4.4,-6.8,29.63,WSW,257,11.0,18.0,59,0.00,,---,0.00,VWS V14.01,2013-02-07 11:05:00,
2013-02-07 02:07:00,3.8,-7.0,29.62,West,269,9.0,19.0,60,0.00,,---,0.00,VWS V14.01,2013-02-07 11:07:00,
2013-02-07 02:09:00,3.4,-7.3,29.62,West,277,14.0,19.0,60,0.00,,---,0.00,VWS V14.01,2013-02-07 11:09:00,
2013-02-07 02:10:00,3.3,-7.4,29.62,NW,313,15.0,19.0,60,0.00,,---,0.00,VWS V14.01,2013-02-07 11:10:00,
2013-02-07 02:12:00,2.9,-7.5,29.63,WNW,300,7.0,17.0,61,0.00,,---,0.00,VWS V14.01,2013-02-07 11:12:00,
2013-02-07 02:15:00,2.7,-7.3,29.62,West,269,6.0,19.0,62,0.00,,---,0.00,VWS V14.01,2013-02-07 11:15:00,
2013-02-07 02:18:00,2.0,-10.1,29.63,NNW,341,13.0,15.0,56,0.00,,---,0.00,VWS V14.01,2013-02-07 11:18:00,
2013-02-07 02:20:00,1.9,-9.8,29.63,NNW,339,16.0,17.0,57,0.00,,---,0.00,VWS V14.01,2013-02-07 11:20:00,
2013-02-07 02:23:00,1.9,-9.8,29.63,NNW,329,9.0,14.0,57,0.00,,---,0.00,VWS V14.01,2013-02-07 11:23:00,
2013-02-07 02:25:00,1.7,-10.0,29.62,North,349,8.0,17.0,57,0.00,,---,0.00,VWS V14.01,2013-02-07 11:25:00,
2013-02-07 02:28:00,2.3,-9.1,29.63,NNW,346,5.0,15.0,58,0.00,,---,0.00,VWS V14.01,2013-02-07 11:28:00,
2013-02-07 02:30:00,3.4,-8.4,29.63,North,350,12.0,23.0,57,0.00,,---,0.00,VWS V14.01,2013-02-07 11:30:00,
2013-02-07 02:31:00,3.5,-8.3,29.63,NE,40,14.0,23.0,57,0.00,,---,0.00,VWS V14.01,2013-02-07 11:31:00,
2013-02-07 02:33:00,3.5,-8.7,29.62,NNW,342,14.0,16.0,56,0.00,,---,0.00,VWS V14.01,2013-02-07 11:33:00,
2013-02-07 02:35:00,3.0,-9.5,29.62,NNW,332,6.0,16.0,55,0.00,,---,0.00,VWS V14.01,2013-02-07 11:35:00,
2013-02-07 02:36:00,2.9,-9.6,29.62,North,360,12.0,16.0,55,0.00,,---,0.00,VWS V14.01,2013-02-07 11:36:00,
2013-02-07 02:38:00,2.7,-9.4,29.61,NW,310,8.0,15.0,56,0.00,,---,0.00,VWS V14.01,2013-02-07 11:38:00,
2013-02-07 02:40:00,2.8,-9.7,29.62,NNW,340,14.0,16.0,55,0.00,,---,0.00,VWS V14.01,2013-02-07 11:40:00,
2013-02-07 02:41:00,2.6,-9.5,29.61,North,355,8.0,16.0,56,0.00,,---,0.00,VWS V14.01,2013-02-07 11:41:00,
2013-02-07 02:43:00,2.6,-9.5,29.61,NNW,333,13.0,17.0,56,0.00,,---,0.00,VWS V14.01,2013-02-07 11:43:00,
2013-02-07 02:45:00,2.6,-9.5,29.61,North,5,11.0,18.0,56,0.00,,---,0.00,VWS V14.01,2013-02-07 11:45:00,
2013-02-07 02:46:00,2.6,-9.5,29.61,North,5,15.0,21.0,56,0.00,,---,0.00,VWS V14.01,2013-02-07 11:46:00,
2013-02-07 02:48:00,2.3,-9.8,29.61,NNW,340,13.0,18.0,56,0.00,,---,0.00,VWS V14.01,2013-02-07 11:48:00,
2013-02-07 02:50:00,2.5,-9.6,29.61,NNW,339,16.0,21.0,56,0.00,,---,0.00,VWS V14.01,2013-02-07 11:50:00,
2013-02-07 02:51:00,1.9,-10.2,29.60,NNW,334,13.0,20.0,56,0.00,,---,0.00,VWS V14.01,2013-02-07 11:51:00,
2013-02-07 02:53:00,2.0,-9.7,29.60,NNW,339,13.0,19.0,57,0.00,,---,0.00,VWS V14.01,2013-02-07 11:53:00,
2013-02-07 02:55:00,1.9,-10.2,29.60,NNE,22,13.0,20.0,56,0.00,,---,0.00,VWS V14.01,2013-02-07 11:55:00,
2013-02-07 02:56:00,2.2,-9.9,29.61,North,5,12.0,22.0,56,0.00,,---,0.00,VWS V14.01,2013-02-07 11:56:00,
2013-02-07 02:58:00,1.9,-10.2,29.61,NNE,19,13.0,17.0,56,0.00,,---,0.00,VWS V14.01,2013-02-07 11:58:00,
2013-02-07 03:00:00,2.1,-10.0,29.60,NNW,343,13.0,22.0,56,0.00,,---,0.00,VWS V14.01,2013-02-07 12:00:00,
2013-02-07 03:01:00,2.0,-9.7,29.60,North,360,12.0,17.0,57,0.00,,---,0.00,VWS V14.01,2013-02-07 12:01:00,
2013-02-07 03:03:00,1.9,-9.8,29.60,North,350,15.0,19.0,57,0.00,,---,0.00,VWS V14.01,2013-02-07 12:03:00,
2013-02-07 03:05:00,2.0,-9.7,29.60,North,360,11.0,17.0,57,0.00,,---,0.00,VWS V14.01,2013-02-07 12:05:00,
2013-02-07 03:07:00,2.0,-9.7,29.60,NNW,345,13.0,22.0,57,0.00,,---,0.00,VWS V14.01,2013-02-07 12:07:00,
2013-02-07 03:09:00,1.9,-9.8,29.60,North,355,10.0,16.0,57,0.00,,---,0.00,VWS V14.01,2013-02-07 12:09:00,
2013-02-07 03:10:00,2.0,-9.7,29.61,NNW,336,12.0,22.0,57,0.00,,---,0.00,VWS V14.01,2013-02-07 12:10:00,
2013-02-07 03:12:00,2.0,-10.1,29.60,North,5,9.0,19.0,56,0.00,,---,0.00,VWS V14.01,2013-02-07 12:12:00,
2013-02-07 03:14:00,2.5,-9.2,29.61,NNW,344,10.0,17.0,57,0.00,,---,0.00,VWS V14.01,2013-02-07 12:14:00,
2013-02-07 03:15:00,2.0,-10.1,29.60,North,5,9.0,19.0,56,0.00,,---,0.00,VWS V14.01,2013-02-07 12:15:00,
2013-02-07 03:17:00,2.8,-9.3,29.60,North,355,10.0,12.0,56,0.00,,---,0.00,VWS V14.01,2013-02-07 12:17:00,
2013-02-07 03:19:00,3.3,-8.9,29.60,North,360,10.0,19.0,56,0.00,,---,0.00,VWS V14.01,2013-02-07 12:19:00,
2013-02-07 03:20:00,2.8,-9.3,29.60,NNE,19,10.0,17.0,56,0.00,,---,0.00,VWS V14.01,2013-02-07 12:20:00,
2013-02-07 03:22:00,3.4,-9.1,29.60,NNW,346,9.0,12.0,55,0.00,,---,0.00,VWS V14.01,2013-02-07 12:22:00,
2013-02-07 03:24:00,2.9,-9.6,29.60,NW,319,15.0,15.0,55,0.00,,---,0.00,VWS V14.01,2013-02-07 12:24:00,
2013-02-07 03:25:00,3.5,-9.0,29.60,North,349,9.0,19.0,55,0.00,,---,0.00,VWS V14.01,2013-02-07 12:25:00,
2013-02-07 03:27:00,3.3,-9.2,29.60,North,360,12.0,19.0,55,0.00,,---,0.00,VWS V14.01,2013-02-07 12:27:00,
2013-02-07 03:30:00,3.6,-8.9,29.59,NNW,330,13.0,20.0,55,0.00,,---,0.00,VWS V14.01,2013-02-07 12:30:00,
2013-02-07 03:33:00,3.5,-9.4,29.59,NNW,341,11.0,17.0,54,0.00,,---,0.00,VWS V14.01,2013-02-07 12:33:00,
2013-02-07 03:35:00,3.2,-9.7,29.59,North,355,11.0,22.0,54,0.00,,---,0.00,VWS V14.01,2013-02-07 12:35:00,
2013-02-07 03:38:00,3.0,-9.9,29.58,NNW,348,19.0,23.0,54,0.00,,---,0.00,VWS V14.01,2013-02-07 12:38:00,
2013-02-07 03:40:00,3.0,-9.5,29.58,North,355,16.0,24.0,55,0.00,,---,0.00,VWS V14.01,2013-02-07 12:40:00,
2013-02-07 03:43:00,3.8,-9.1,29.58,North,10,21.0,22.0,54,0.00,,---,0.00,VWS V14.01,2013-02-07 12:43:00,
2013-02-07 03:45:00,3.7,-9.6,29.58,NNW,348,20.0,26.0,53,0.00,,---,0.00,VWS V14.01,2013-02-07 12:45:00,
2013-02-07 03:48:00,2.9,-10.7,29.58,NNW,347,19.0,26.0,52,0.00,,---,0.00,VWS V14.01,2013-02-07 12:48:00,
2013-02-07 03:50:00,2.7,-10.5,29.58,North,355,22.0,26.0,53,0.00,,---,0.00,VWS V14.01,2013-02-07 12:50:00,
2013-02-07 03:53:00,1.6,-11.2,29.58,NW,317,17.0,26.0,54,0.00,,---,0.00,VWS V14.01,2013-02-07 12:53:00,
2013-02-07 03:54:00,1.5,-11.3,29.58,NW,321,25.0,26.0,54,0.00,,---,0.00,VWS V14.01,2013-02-07 12:54:00,
2013-02-07 03:55:00,1.0,-11.0,29.58,North,355,16.0,28.0,56,0.00,,---,0.00,VWS V14.01,2013-02-07 12:55:00,
2013-02-07 03:59:00,1.8,-9.9,29.58,NNW,340,17.0,30.0,57,0.00,,---,0.00,VWS V14.01,2013-02-07 12:59:00,
2013-02-07 04:00:00,0.8,-10.9,29.59,NNW,348,25.0,28.0,57,0.00,,---,0.00,VWS V14.01,2013-02-07 13:00:00,
2013-02-07 04:01:00,2.0,-10.1,29.57,NNW,336,18.0,30.0,56,0.00,,---,0.00,VWS V14.01,2013-02-07 13:01:00,
2013-02-07 04:04:00,2.5,-10.0,29.57,NW,304,15.0,24.0,55,0.00,,---,0.00,VWS V14.01,2013-02-07 13:04:00,
2013-02-07 04:05:00,2.1,-10.0,29.57,NW,312,24.0,30.0,56,0.00,,---,0.00,VWS V14.01,2013-02-07 13:05:00,
2013-02-07 04:06:00,2.5,-10.0,29.58,NW,317,24.0,25.0,55,0.00,,---,0.00,VWS V14.01,2013-02-07 13:06:00,
2013-02-07 04:09:00,2.7,-10.5,29.58,NW,321,14.0,19.0,53,0.00,,---,0.00,VWS V14.01,2013-02-07 13:09:00,
2013-02-07 04:10:00,2.3,-10.5,29.58,NNW,339,13.0,19.0,54,0.00,,---,0.00,VWS V14.01,2013-02-07 13:10:00,
2013-02-07 04:11:00,2.0,-10.8,29.58,North,350,19.0,19.0,54,0.00,,---,0.00,VWS V14.01,2013-02-07 13:11:00,
2013-02-07 04:14:00,3.9,-8.7,29.59,North,355,10.0,20.0,55,0.00,,---,0.00,VWS V14.01,2013-02-07 13:14:00,
2013-02-07 04:15:00,4.2,-8.8,29.59,North,5,17.0,20.0,54,0.00,,---,0.00,VWS V14.01,2013-02-07 13:15:00,
2013-02-07 04:16:00,4.6,-9.1,29.58,North,360,16.0,20.0,52,0.00,,---,0.00,VWS V14.01,2013-02-07 13:16:00,
2013-02-07 04:19:00,4.2,-9.9,29.58,West,277,7.0,16.0,51,0.00,,---,0.00,VWS V14.01,2013-02-07 13:19:00,
2013-02-07 04:20:00,3.9,-10.2,29.58,NNW,327,12.0,16.0,51,0.00,,---,0.00,VWS V14.01,2013-02-07 13:20:00,
2013-02-07 04:21:00,2.7,-11.3,29.58,NW,324,12.0,17.0,51,0.00,,---,0.00,VWS V14.01,2013-02-07 13:21:00,
2013-02-07 04:25:00,1.4,-11.0,29.58,NW,325,11.0,16.0,55,0.00,,---,0.00,VWS V14.01,2013-02-07 13:25:00,
2013-02-07 04:26:00,1.8,-10.3,29.57,NW,310,11.0,16.0,56,0.00,,---,0.00,VWS V14.01,2013-02-07 13:26:00,
2013-02-07 04:30:00,2.7,-9.8,29.57,North,5,15.0,21.0,55,0.00,,---,0.00,VWS V14.01,2013-02-07 13:30:00,
2013-02-07 04:31:00,2.7,-9.8,29.58,North,360,15.0,21.0,55,0.00,,---,0.00,VWS V14.01,2013-02-07 13:31:00,
2013-02-07 04:35:00,2.4,-10.4,29.57,NNW,342,16.0,22.0,54,0.00,,---,0.00,VWS V14.01,2013-02-07 13:35:00,
2013-02-07 04:37:00,1.9,-10.9,29.57,North,355,9.0,22.0,54,0.00,,---,0.00,VWS V14.01,2013-02-07 13:37:00,
2013-02-07 04:40:00,1.6,-10.1,29.57,NNW,348,12.0,18.0,57,0.00,,---,0.00,VWS V14.01,2013-02-07 13:40:00,
2013-02-07 04:42:00,1.4,-10.3,29.57,North,5,9.0,11.0,57,0.00,,---,0.00,VWS V14.01,2013-02-07 13:42:00,
2013-02-07 04:45:00,0.2,-11.4,29.57,North,355,10.0,18.0,57,0.00,,---,0.00,VWS V14.01,2013-02-07 13:45:00,
2013-02-07 04:47:00,0.1,-11.3,29.56,North,360,4.0,10.0,58,0.00,,---,0.00,VWS V14.01,2013-02-07 13:47:00,
2013-02-07 04:50:00,0.1,-11.3,29.56,North,5,10.0,18.0,58,0.00,,---,0.00,VWS V14.01,2013-02-07 13:50:00,
2013-02-07 04:51:00,0.8,-10.5,29.56,NW,325,6.0,12.0,58,0.00,,---,0.00,VWS V14.01,2013-02-07 13:51:00,
2013-02-07 04:52:00,1.4,-9.6,29.55,NW,318,3.0,6.0,59,0.00,,---,0.00,VWS V14.01,2013-02-07 13:52:00,
2013-02-07 04:55:00,1.3,-9.7,29.55,NNE,16,4.0,12.0,59,0.00,,---,0.00,VWS V14.01,2013-02-07 13:55:00,
2013-02-07 04:56:00,3.1,-8.3,29.55,WNW,301,4.0,9.0,58,0.00,,---,0.00,VWS V14.01,2013-02-07 13:56:00,
2013-02-07 04:57:00,3.6,-8.2,29.54,ENE,78,4.0,11.0,57,0.00,,---,0.00,VWS V14.01,2013-02-07 13:57:00,
2013-02-07 05:00:00,3.5,-8.3,29.54,NNE,24,11.0,11.0,57,0.00,,---,0.00,VWS V14.01,2013-02-07 14:00:00,
2013-02-07 05:01:00,6.4,-5.9,29.54,NNW,340,18.0,26.0,56,0.00,,---,0.00,VWS V14.01,2013-02-07 14:01:00,
2013-02-07 05:02:00,6.4,-6.3,29.54,NNW,348,14.0,18.0,55,0.00,,---,0.00,VWS V14.01,2013-02-07 14:02:00,
2013-02-07 05:05:00,6.4,-6.3,29.54,North,355,17.0,28.0,55,0.00,,---,0.00,VWS V14.01,2013-02-07 14:05:00,
2013-02-07 05:06:00,6.7,-6.0,29.54,North,360,19.0,24.0,55,0.00,,---,0.00,VWS V14.01,2013-02-07 14:06:00,
2013-02-07 05:07:00,6.6,-6.1,29.54,NNW,336,23.0,24.0,55,0.00,,---,0.00,VWS V14.01,2013-02-07 14:07:00,
2013-02-07 05:10:00,6.6,-6.1,29.54,NNW,336,23.0,24.0,55,0.00,,---,0.00,VWS V14.01,2013-02-07 14:10:00,
2013-02-07 05:11:00,6.3,-6.0,29.54,North,5,13.0,24.0,56,0.00,,---,0.00,VWS V14.01,2013-02-07 14:11:00,
2013-02-07 05:12:00,6.4,-5.9,29.54,NNW,335,7.0,24.0,56,0.00,,---,0.00,VWS V14.01,2013-02-07 14:12:00,
2013-02-07 05:15:00,6.4,-5.9,29.55,NNW,347,12.0,24.0,56,0.00,,---,0.00,VWS V14.01,2013-02-07 14:15:00,
2013-02-07 05:17:00,6.9,-5.8,29.55,NNW,340,14.0,14.0,55,0.00,,---,0.00,VWS V14.01,2013-02-07 14:17:00,
2013-02-07 05:20:00,6.9,-5.8,29.55,North,350,14.0,18.0,55,0.00,,---,0.00,VWS V14.01,2013-02-07 14:20:00,
2013-02-07 05:22:00,5.4,-7.2,29.54,North,5,16.0,17.0,55,0.00,,---,0.00,VWS V14.01,2013-02-07 14:22:00,
2013-02-07 05:25:00,5.5,-7.2,29.54,North,349,17.0,24.0,55,0.00,,---,0.00,VWS V14.01,2013-02-07 14:25:00,
2013-02-07 05:27:00,4.9,-6.6,29.54,NNW,329,12.0,18.0,58,0.00,,---,0.00,VWS V14.01,2013-02-07 14:27:00,
2013-02-07 05:30:00,4.9,-6.6,29.54,NNW,334,16.0,25.0,58,0.00,,---,0.00,VWS V14.01,2013-02-07 14:30:00,
2013-02-07 05:32:00,4.4,-7.1,29.54,NNW,344,17.0,21.0,58,0.00,,---,0.00,VWS V14.01,2013-02-07 14:32:00,
2013-02-07 05:33:00,4.1,-7.0,29.54,NNW,336,17.0,25.0,59,0.00,,---,0.00,VWS V14.01,2013-02-07 14:33:00,
2013-02-07 05:35:00,4.5,-7.0,29.54,NNW,331,21.0,23.0,58,0.00,,---,0.00,VWS V14.01,2013-02-07 14:35:00,
2013-02-07 05:38:00,3.5,-6.9,29.53,NNW,348,17.0,25.0,61,0.00,,---,0.00,VWS V14.01,2013-02-07 14:38:00,
2013-02-07 05:40:00,3.5,-7.3,29.53,NNW,348,18.0,26.0,60,0.00,,---,0.00,VWS V14.01,2013-02-07 14:40:00,
2013-02-07 05:43:00,3.3,-7.1,29.53,North,355,19.0,26.0,61,0.00,,---,0.00,VWS V14.01,2013-02-07 14:43:00,
2013-02-07 05:44:00,3.3,-7.1,29.53,NNW,329,19.0,26.0,61,0.00,,---,0.00,VWS V14.01,2013-02-07 14:44:00,
2013-02-07 05:45:00,3.4,-7.0,29.53,NNW,341,25.0,25.0,61,0.00,,---,0.00,VWS V14.01,2013-02-07 14:45:00,
2013-02-07 05:48:00,3.7,-6.7,29.52,NNW,338,17.0,24.0,61,0.00,,---,0.00,VWS V14.01,2013-02-07 14:48:00,
2013-02-07 05:49:00,3.6,-6.8,29.52,NNW,344,22.0,27.0,61,0.00,,---,0.00,VWS V14.01,2013-02-07 14:49:00,
2013-02-07 05:50:00,3.6,-6.8,29.52,NW,314,13.0,26.0,61,0.00,,---,0.00,VWS V14.01,2013-02-07 14:50:00,
2013-02-07 05:53:00,3.2,-7.2,29.52,NNW,342,18.0,31.0,61,0.00,,---,0.00,VWS V14.01,2013-02-07 14:53:00,
2013-02-07 05:54:00,3.2,-6.9,29.52,NNW,342,18.0,31.0,62,0.00,,---,0.00,VWS V14.01,2013-02-07 14:54:00,
2013-02-07 05:55:00,3.4,-7.0,29.52,North,5,25.0,29.0,61,0.00,,---,0.00,VWS V14.01,2013-02-07 14:55:00,
2013-02-07 05:58:00,4.0,-6.4,29.53,NNW,327,13.0,18.0,61,0.00,,---,0.00,VWS V14.01,2013-02-07 14:58:00,
2013-02-07 05:59:00,4.1,-6.3,29.53,NW,317,12.0,19.0,61,0.00,,---,0.00,VWS V14.01,2013-02-07 14:59:00,
2013-02-07 06:00:00,4.3,-6.5,29.53,NW,317,11.0,19.0,60,0.00,,---,0.00,VWS V14.01,2013-02-07 15:00:00,
2013-02-07 06:03:00,4.6,-6.6,29.52,NNW,332,17.0,17.0,59,0.00,,---,0.00,VWS V14.01,2013-02-07 15:03:00,
2013-02-07 06:04:00,4.6,-6.6,29.53,NW,312,17.0,20.0,59,0.00,,---,0.00,VWS V14.01,2013-02-07 15:04:00,
2013-02-07 06:05:00,4.6,-6.6,29.53,NNW,341,9.0,20.0,59,0.00,,---,0.00,VWS V14.01,2013-02-07 15:05:00,
2013-02-07 06:08:00,4.4,-7.1,29.53,NNW,347,17.0,23.0,58,0.00,,---,0.00,VWS V14.01,2013-02-07 15:08:00,
2013-02-07 06:09:00,4.4,-7.1,29.53,NNW,344,18.0,23.0,58,0.00,,---,0.00,VWS V14.01,2013-02-07 15:09:00,
2013-02-07 06:10:00,4.2,-6.9,29.52,NW,315,20.0,23.0,59,0.00,,---,0.00,VWS V14.01,2013-02-07 15:10:00,
2013-02-07 06:13:00,3.8,-7.0,29.52,NNW,334,18.0,23.0,60,0.00,,---,0.00,VWS V14.01,2013-02-07 15:13:00,
2013-02-07 06:14:00,3.8,-7.0,29.52,NNW,339,22.0,23.0,60,0.00,,---,0.00,VWS V14.01,2013-02-07 15:14:00,
2013-02-07 06:15:00,3.9,-6.9,29.52,NNW,339,23.0,23.0,60,0.00,,---,0.00,VWS V14.01,2013-02-07 15:15:00,
2013-02-07 06:18:00,4.4,-6.8,29.52,NW,323,16.0,18.0,59,0.00,,---,0.00,VWS V14.01,2013-02-07 15:18:00,
2013-02-07 06:19:00,4.5,-6.7,29.52,NNW,332,8.0,18.0,59,0.00,,---,0.00,VWS V14.01,2013-02-07 15:19:00,
2013-02-07 06:20:00,4.9,-6.3,29.52,NW,323,6.0,18.0,59,0.00,,---,0.00,VWS V14.01,2013-02-07 15:20:00,
2013-02-07 06:24:00,6.5,-6.2,29.51,WNW,296,11.0,17.0,55,0.00,,---,0.00,VWS V14.01,2013-02-07 15:24:00,
2013-02-07 06:25:00,6.7,-6.0,29.51,NW,315,8.0,17.0,55,0.00,,---,0.00,VWS V14.01,2013-02-07 15:25:00,
2013-02-07 06:29:00,6.5,-6.2,29.51,NW,316,11.0,17.0,55,0.00,,---,0.00,VWS V14.01,2013-02-07 15:29:00,
2013-02-07 06:30:00,6.6,-6.1,29.51,NW,305,9.0,17.0,55,0.00,,---,0.00,VWS V14.01,2013-02-07 15:30:00,
2013-02-07 06:34:00,7.1,-6.0,29.51,NW,321,13.0,17.0,54,0.00,,---,0.00,VWS V14.01,2013-02-07 15:34:00,
2013-02-07 06:35:00,7.0,-6.1,29.51,NW,308,10.0,17.0,54,0.00,,---,0.00,VWS V14.01,2013-02-07 15:35:00,
2013-02-07 06:40:00,6.7,-6.4,29.51,NW,324,8.0,22.0,54,0.00,,---,0.00,VWS V14.01,2013-02-07 15:40:00,
2013-02-07 06:45:00,6.5,-6.2,29.51,NW,325,10.0,24.0,55,0.00,,---,0.00,VWS V14.01,2013-02-07 15:45:00,
2013-02-07 06:46:00,6.4,-6.3,29.51,NW,304,12.0,24.0,55,0.00,,---,0.00,VWS V14.01,2013-02-07 15:46:00,
2013-02-07 06:50:00,6.4,-6.7,29.51,NW,320,13.0,23.0,54,0.00,,---,0.00,VWS V14.01,2013-02-07 15:50:00,
2013-02-07 06:51:00,6.4,-6.7,29.51,NW,312,14.0,23.0,54,0.00,,---,0.00,VWS V14.01,2013-02-07 15:51:00,
2013-02-07 06:55:00,6.1,-6.6,29.51,NW,322,13.0,20.0,55,0.00,,---,0.00,VWS V14.01,2013-02-07 15:55:00,
2013-02-07 06:56:00,6.1,-6.6,29.51,NW,317,10.0,20.0,55,0.00,,---,0.00,VWS V14.01,2013-02-07 15:56:00,
2013-02-07 06:57:00,6.1,-6.2,29.51,NNW,332,12.0,20.0,56,0.00,,---,0.00,VWS V14.01,2013-02-07 15:57:00,
2013-02-07 07:00:00,6.1,-6.2,29.51,NW,314,10.0,20.0,56,0.00,,---,0.00,VWS V14.01,2013-02-07 16:00:00,
2013-02-07 07:01:00,6.0,-7.1,29.51,WNW,303,16.0,24.0,54,0.00,,---,0.00,VWS V14.01,2013-02-07 16:01:00,
2013-02-07 07:02:00,5.8,-7.2,29.51,NW,326,13.0,24.0,54,0.00,,---,0.00,VWS V14.01,2013-02-07 16:02:00,
2013-02-07 07:05:00,5.8,-7.2,29.51,NW,326,13.0,24.0,54,0.00,,---,0.00,VWS V14.01,2013-02-07 16:05:00,
2013-02-07 07:06:00,5.1,-7.5,29.50,West,279,10.0,20.0,55,0.00,,---,0.00,VWS V14.01,2013-02-07 16:06:00,
2013-02-07 07:07:00,5.0,-7.3,29.50,WNW,300,11.0,13.0,56,0.00,,---,0.00,VWS V14.01,2013-02-07 16:07:00,
2013-02-07 07:10:00,5.0,-7.6,29.50,West,277,13.0,20.0,55,0.00,,---,0.00,VWS V14.01,2013-02-07 16:10:00,
2013-02-07 07:11:00,5.1,-6.8,29.50,WNW,288,8.0,19.0,57,0.00,,---,0.00,VWS V14.01,2013-02-07 16:11:00,
2013-02-07 07:12:00,5.0,-7.3,29.50,NW,319,16.0,22.0,56,0.00,,---,0.00,VWS V14.01,2013-02-07 16:12:00,
2013-02-07 07:15:00,5.0,-7.3,29.50,NW,315,12.0,22.0,56,0.00,,---,0.00,VWS V14.01,2013-02-07 16:15:00,
2013-02-07 07:16:00,5.0,-5.2,29.50,WNW,288,7.0,22.0,62,0.00,,---,0.00,VWS V14.01,2013-02-07 16:16:00,
2013-02-07 07:17:00,5.0,-7.3,29.50,WNW,286,19.0,19.0,56,0.00,,---,0.00,VWS V14.01,2013-02-07 16:17:00,
2013-02-07 07:20:00,5.0,-7.3,29.50,West,275,19.0,22.0,56,0.00,,---,0.00,VWS V14.01,2013-02-07 16:20:00,
2013-02-07 07:21:00,4.7,-7.2,29.49,West,269,15.0,21.0,57,0.00,,---,0.00,VWS V14.01,2013-02-07 16:21:00,
2013-02-07 07:22:00,4.7,-6.8,29.49,WSW,244,10.0,21.0,58,0.00,,---,0.00,VWS V14.01,2013-02-07 16:22:00,
2013-02-07 07:25:00,4.7,-6.8,29.49,WSW,244,10.0,21.0,58,0.00,,---,0.00,VWS V14.01,2013-02-07 16:25:00,
2013-02-07 07:27:00,4.2,-6.9,29.49,West,280,8.0,17.0,59,0.00,,---,0.00,VWS V14.01,2013-02-07 16:27:00,
2013-02-07 07:30:00,4.2,-6.9,29.49,WNW,282,8.0,17.0,59,0.00,,---,0.00,VWS V14.01,2013-02-07 16:30:00,
2013-02-07 07:32:00,3.8,-7.0,29.48,WSW,257,5.0,13.0,60,0.00,,---,0.00,VWS V14.01,2013-02-07 16:32:00,
2013-02-07 07:33:00,3.9,-6.5,29.49,WSW,246,5.0,17.0,61,0.00,,---,0.00,VWS V14.01,2013-02-07 16:33:00,
2013-02-07 07:35:00,3.8,-6.6,29.48,West,269,6.0,13.0,61,0.00,,---,0.00,VWS V14.01,2013-02-07 16:35:00,
2013-02-07 07:37:00,5.8,-3.7,29.47,NNW,348,17.0,24.0,64,0.00,,---,0.00,VWS V14.01,2013-02-07 16:37:00,
2013-02-07 07:38:00,6.3,-3.6,29.48,NNW,342,19.0,24.0,63,0.00,,---,0.00,VWS V14.01,2013-02-07 16:38:00,
2013-02-07 07:40:00,5.8,-3.7,29.47,NNW,348,17.0,24.0,64,0.00,,---,0.00,VWS V14.01,2013-02-07 16:40:00,
2013-02-07 07:42:00,3.1,-7.0,29.48,NNW,334,9.0,13.0,62,0.00,,---,0.00,VWS V14.01,2013-02-07 16:42:00,
2013-02-07 07:43:00,3.2,-8.6,29.47,NNW,347,11.0,19.0,57,0.00,,---,0.00,VWS V14.01,2013-02-07 16:43:00,
2013-02-07 07:45:00,3.1,-7.0,29.47,North,5,10.0,24.0,62,0.00,,---,0.00,VWS V14.01,2013-02-07 16:45:00,
2013-02-07 07:47:00,3.3,-8.9,29.48,NNW,346,10.0,17.0,56,0.00,,---,0.00,VWS V14.01,2013-02-07 16:47:00,
2013-02-07 07:48:00,3.3,-8.9,29.48,NNW,329,11.0,19.0,56,0.00,,---,0.00,VWS V14.01,2013-02-07 16:48:00,
2013-02-07 07:50:00,3.3,-8.9,29.48,NNW,331,17.0,19.0,56,0.00,,---,0.00,VWS V14.01,2013-02-07 16:50:00,
2013-02-07 07:52:00,3.9,-8.3,29.48,NNW,334,15.0,15.0,56,0.00,,---,0.00,VWS V14.01,2013-02-07 16:52:00,
2013-02-07 07:54:00,4.7,-7.5,29.48,WNW,300,9.0,17.0,56,0.00,,---,0.00,VWS V14.01,2013-02-07 16:54:00,
2013-02-07 07:55:00,3.8,-8.4,29.48,NNE,19,11.0,21.0,56,0.00,,---,0.00,VWS V14.01,2013-02-07 16:55:00,
2013-02-07 07:57:00,4.8,-8.6,29.48,NNW,348,9.0,19.0,53,0.00,,---,0.00,VWS V14.01,2013-02-07 16:57:00,
2013-02-07 07:58:00,4.9,-8.1,29.48,NNE,20,14.0,19.0,54,0.00,,---,0.00,VWS V14.01,2013-02-07 16:58:00,
2013-02-07 07:59:00,5.0,-8.0,29.48,North,355,17.0,19.0,54,0.00,,---,0.00,VWS V14.01,2013-02-07 16:59:00,
2013-02-07 08:00:00,4.8,-8.6,29.48,NNW,329,8.0,17.0,53,0.00,,---,0.00,VWS V14.01,2013-02-07 17:00:00,
2013-02-07 08:02:00,5.6,-7.4,29.47,NNW,331,11.0,11.0,54,0.00,,---,0.00,VWS V14.01,2013-02-07 17:02:00,
2013-02-07 08:04:00,5.7,-7.7,29.47,NNW,331,11.0,17.0,53,0.00,,---,0.00,VWS V14.01,2013-02-07 17:04:00,
2013-02-07 08:05:00,5.6,-7.4,29.47,NNW,331,11.0,20.0,54,0.00,,---,0.00,VWS V14.01,2013-02-07 17:05:00,
2013-02-07 08:07:00,5.6,-7.8,29.48,North,360,19.0,23.0,53,0.00,,---,0.00,VWS V14.01,2013-02-07 17:07:00,
2013-02-07 08:09:00,5.4,-8.0,29.47,NNW,345,13.0,23.0,53,0.00,,---,0.00,VWS V14.01,2013-02-07 17:09:00,
2013-02-07 08:10:00,5.6,-7.4,29.48,NNW,334,23.0,25.0,54,0.00,,---,0.00,VWS V14.01,2013-02-07 17:10:00,
2013-02-07 08:12:00,4.8,-9.0,29.47,NNW,330,11.0,16.0,52,0.00,,---,0.00,VWS V14.01,2013-02-07 17:12:00,
2013-02-07 08:14:00,4.6,-9.1,29.47,NW,321,16.0,19.0,52,0.00,,---,0.00,VWS V14.01,2013-02-07 17:14:00,
2013-02-07 08:15:00,4.9,-8.9,29.47,NNW,329,15.0,23.0,52,0.00,,---,0.00,VWS V14.01,2013-02-07 17:15:00,
2013-02-07 08:17:00,4.5,-8.5,29.46,NNW,336,18.0,24.0,54,0.00,,---,0.00,VWS V14.01,2013-02-07 17:17:00,
2013-02-07 08:19:00,4.6,-8.0,29.46,NNW,342,14.0,24.0,55,0.00,,---,0.00,VWS V14.01,2013-02-07 17:19:00,
2013-02-07 08:20:00,4.5,-8.5,29.46,NW,316,19.0,21.0,54,0.00,,---,0.00,VWS V14.01,2013-02-07 17:20:00,
2013-02-07 08:22:00,4.7,-7.9,29.46,NW,324,19.0,21.0,55,0.00,,---,0.00,VWS V14.01,2013-02-07 17:22:00,
2013-02-07 08:23:00,4.7,-7.9,29.46,NNW,333,13.0,21.0,55,0.00,,---,0.00,VWS V14.01,2013-02-07 17:23:00,
2013-02-07 08:24:00,4.7,-7.9,29.46,NNW,338,17.0,21.0,55,0.00,,---,0.00,VWS V14.01,2013-02-07 17:24:00,
2013-02-07 08:25:00,4.7,-7.9,29.46,NNW,332,19.0,25.0,55,0.00,,---,0.00,VWS V14.01,2013-02-07 17:25:00,
2013-02-07 08:28:00,5.6,-6.0,29.46,NW,309,17.0,22.0,58,0.00,,---,0.00,VWS V14.01,2013-02-07 17:28:00,
2013-02-07 08:29:00,5.7,-6.2,29.46,NNE,14,17.0,24.0,57,0.00,,---,0.00,VWS V14.01,2013-02-07 17:29:00,
2013-02-07 08:30:00,5.2,-6.0,29.46,North,5,16.0,30.0,59,0.00,,---,0.00,VWS V14.01,2013-02-07 17:30:00,
2013-02-07 08:33:00,5.6,-6.3,29.46,North,355,10.0,22.0,57,0.00,,---,0.00,VWS V14.01,2013-02-07 17:33:00,
2013-02-07 08:34:00,5.4,-6.2,29.46,North,355,15.0,22.0,58,0.00,,---,0.00,VWS V14.01,2013-02-07 17:34:00,
2013-02-07 08:35:00,5.4,-6.2,29.46,North,5,12.0,22.0,58,0.00,,---,0.00,VWS V14.01,2013-02-07 17:35:00,
2013-02-07 08:38:00,5.6,-5.3,29.45,NW,319,13.0,21.0,60,0.00,,---,0.00,VWS V14.01,2013-02-07 17:38:00,
2013-02-07 08:39:00,5.9,-5.0,29.45,North,355,18.0,23.0,60,0.00,,---,0.00,VWS V14.01,2013-02-07 17:39:00,
2013-02-07 08:40:00,5.9,-5.0,29.45,North,355,20.0,25.0,60,0.00,,---,0.00,VWS V14.01,2013-02-07 17:40:00,
2013-02-07 08:43:00,6.0,-5.2,29.45,North,349,22.0,23.0,59,0.00,,---,0.00,VWS V14.01,2013-02-07 17:43:00,
2013-02-07 08:44:00,6.1,-5.1,29.45,NNW,344,15.0,26.0,59,0.00,,---,0.00,VWS V14.01,2013-02-07 17:44:00,
2013-02-07 08:45:00,6.1,-4.8,29.46,North,360,14.0,26.0,60,0.00,,---,0.00,VWS V14.01,2013-02-07 17:45:00,
2013-02-07 08:48:00,6.0,-5.2,29.45,NNW,340,10.0,20.0,59,0.00,,---,0.00,VWS V14.01,2013-02-07 17:48:00,
2013-02-07 08:49:00,6.0,-4.9,29.45,North,360,12.0,21.0,60,0.00,,---,0.00,VWS V14.01,2013-02-07 17:49:00,
2013-02-07 08:50:00,6.0,-4.6,29.45,NNE,20,20.0,22.0,61,0.00,,---,0.00,VWS V14.01,2013-02-07 17:50:00,
2013-02-07 08:53:00,6.0,-4.2,29.45,NNE,31,21.0,23.0,62,0.00,,---,0.00,VWS V14.01,2013-02-07 17:53:00,
2013-02-07 08:54:00,6.0,-4.2,29.45,North,360,18.0,23.0,62,0.00,,---,0.00,VWS V14.01,2013-02-07 17:54:00,
2013-02-07 08:55:00,6.0,-4.2,29.45,NNW,328,18.0,23.0,62,0.00,,---,0.00,VWS V14.01,2013-02-07 17:55:00,
2013-02-07 08:58:00,6.0,-4.6,29.45,North,360,7.0,26.0,61,0.00,,---,0.00,VWS V14.01,2013-02-07 17:58:00,
2013-02-07 09:00:00,5.9,-4.6,29.46,North,355,8.0,26.0,61,0.00,,---,0.00,VWS V14.01,2013-02-07 18:00:00,
2013-02-07 09:03:00,5.6,-4.6,29.45,North,350,8.0,19.0,62,0.00,,---,0.00,VWS V14.01,2013-02-07 18:03:00,
2013-02-07 09:05:00,5.6,-4.6,29.45,North,355,16.0,19.0,62,0.00,,---,0.00,VWS V14.01,2013-02-07 18:05:00,
2013-02-07 09:09:00,5.3,-4.5,29.45,NNW,348,11.0,26.0,63,0.00,,---,0.00,VWS V14.01,2013-02-07 18:09:00,
2013-02-07 09:10:00,5.2,-4.6,29.44,NNE,13,17.0,26.0,63,0.00,,---,0.00,VWS V14.01,2013-02-07 18:10:00,
2013-02-07 09:14:00,5.1,-4.4,29.43,North,350,15.0,27.0,64,0.00,,---,0.00,VWS V14.01,2013-02-07 18:14:00,
2013-02-07 09:15:00,5.0,-4.2,29.43,North,360,9.0,27.0,65,0.00,,---,0.00,VWS V14.01,2013-02-07 18:15:00,
2013-02-07 09:16:00,4.9,-4.3,29.44,North,11,18.0,27.0,65,0.00,,---,0.00,VWS V14.01,2013-02-07 18:16:00,
2013-02-07 09:20:00,4.6,-4.6,29.46,North,5,7.0,20.0,65,0.00,,---,0.00,VWS V14.01,2013-02-07 18:20:00,
2013-02-07 09:21:00,4.5,-5.0,29.46,NNE,19,12.0,20.0,64,0.00,,---,0.00,VWS V14.01,2013-02-07 18:21:00,
2013-02-07 09:22:00,4.4,-5.4,29.46,NNW,340,7.0,20.0,63,0.00,,---,0.00,VWS V14.01,2013-02-07 18:22:00,
2013-02-07 09:25:00,4.4,-5.1,29.43,NE,50,15.0,23.0,64,0.00,,---,0.00,VWS V14.01,2013-02-07 18:25:00,
2013-02-07 09:26:00,4.4,-4.8,29.43,North,355,11.0,23.0,65,0.00,,---,0.00,VWS V14.01,2013-02-07 18:26:00,
2013-02-07 09:27:00,4.5,-4.7,29.43,North,5,13.0,23.0,65,0.00,,---,0.00,VWS V14.01,2013-02-07 18:27:00,
2013-02-07 09:30:00,4.7,-4.2,29.43,NNW,327,16.0,28.0,66,0.00,,---,0.00,VWS V14.01,2013-02-07 18:30:00,
2013-02-07 09:31:00,4.7,-4.2,29.42,NE,48,36.0,36.0,66,0.00,,---,0.00,VWS V14.01,2013-02-07 18:31:00,
2013-02-07 09:32:00,4.7,-4.2,29.42,NE,37,11.0,36.0,66,0.00,,---,0.00,VWS V14.01,2013-02-07 18:32:00,
2013-02-07 09:35:00,4.9,-4.3,29.42,North,5,10.0,29.0,65,0.00,,---,0.00,VWS V14.01,2013-02-07 18:35:00,
2013-02-07 09:36:00,4.9,-4.0,29.43,ENE,57,13.0,29.0,66,0.00,,---,0.00,VWS V14.01,2013-02-07 18:36:00,
2013-02-07 09:37:00,4.9,-4.3,29.43,NNE,25,14.0,29.0,65,0.00,,---,0.00,VWS V14.01,2013-02-07 18:37:00,
2013-02-07 09:40:00,5.3,-4.5,29.42,North,11,20.0,29.0,63,0.00,,---,0.00,VWS V14.01,2013-02-07 18:40:00,
2013-02-07 09:41:00,5.3,-4.2,29.43,ENE,65,13.0,30.0,64,0.00,,---,0.00,VWS V14.01,2013-02-07 18:41:00,
2013-02-07 09:42:00,5.2,-4.3,29.43,NE,49,37.0,37.0,64,0.00,,---,0.00,VWS V14.01,2013-02-07 18:42:00,
2013-02-07 09:45:00,5.1,-4.1,29.42,East,81,18.0,37.0,65,0.00,,---,0.00,VWS V14.01,2013-02-07 18:45:00,
2013-02-07 09:46:00,5.0,-4.2,29.43,ENE,76,27.0,37.0,65,0.00,,---,0.00,VWS V14.01,2013-02-07 18:46:00,
2013-02-07 09:47:00,5.1,-4.1,29.44,ENE,69,17.0,30.0,65,0.00,,---,0.00,VWS V14.01,2013-02-07 18:47:00,
2013-02-07 09:50:00,5.1,-4.1,29.43,NE,36,25.0,39.0,65,0.00,,---,0.00,VWS V14.01,2013-02-07 18:50:00,
2013-02-07 09:51:00,4.8,-4.4,29.44,ENE,57,26.0,34.0,65,0.00,,---,0.00,VWS V14.01,2013-02-07 18:51:00,
2013-02-07 09:52:00,5.0,-4.2,29.44,East,86,19.0,29.0,65,0.00,,---,0.00,VWS V14.01,2013-02-07 18:52:00,
2013-02-07 09:55:00,5.0,-4.2,29.44,ENE,63,29.0,34.0,65,0.00,,---,0.00,VWS V14.01,2013-02-07 18:55:00,
2013-02-07 09:56:00,5.9,-3.6,29.44,ENE,76,21.0,29.0,64,0.00,,---,0.00,VWS V14.01,2013-02-07 18:56:00,
2013-02-07 09:57:00,5.8,-4.1,29.44,ENE,59,28.0,32.0,63,0.00,,---,0.00,VWS V14.01,2013-02-07 18:57:00,
2013-02-07 09:58:00,5.6,-4.3,29.43,ENE,69,25.0,28.0,63,0.00,,---,0.00,VWS V14.01,2013-02-07 18:58:00,
2013-02-07 10:00:00,5.8,-4.1,29.43,ENE,59,28.0,32.0,63,0.00,,---,0.00,VWS V14.01,2013-02-07 19:00:00,
2013-02-07 10:01:00,5.4,-4.4,29.45,ENE,67,13.0,36.0,63,0.00,,---,0.00,VWS V14.01,2013-02-07 19:01:00,
2013-02-07 10:02:00,5.5,-4.3,29.43,NE,55,20.0,20.0,63,0.00,,---,0.00,VWS V14.01,2013-02-07 19:02:00,
2013-02-07 10:03:00,5.6,-4.3,29.44,ENE,78,19.0,28.0,63,0.00,,---,0.00,VWS V14.01,2013-02-07 19:03:00,
2013-02-07 10:05:00,5.5,-4.3,29.45,NNW,348,13.0,36.0,63,0.00,,---,0.00,VWS V14.01,2013-02-07 19:05:00,
2013-02-07 10:06:00,7.1,-4.2,29.44,ENE,75,6.0,28.0,59,0.00,,---,0.00,VWS V14.01,2013-02-07 19:06:00,
2013-02-07 10:07:00,6.8,-4.8,29.44,NE,36,10.0,22.0,58,0.00,,---,0.00,VWS V14.01,2013-02-07 19:07:00,
2013-02-07 10:08:00,6.4,-4.9,29.44,East,87,20.0,29.0,59,0.00,,---,0.00,VWS V14.01,2013-02-07 19:08:00,
2013-02-07 10:10:00,6.8,-4.8,29.44,ENE,68,22.0,28.0,58,0.00,,---,0.00,VWS V14.01,2013-02-07 19:10:00,
2013-02-07 10:11:00,5.5,-5.0,29.45,NNE,25,19.0,36.0,61,0.00,,---,0.00,VWS V14.01,2013-02-07 19:11:00,
2013-02-07 10:12:00,6.0,-4.6,29.44,NE,53,28.0,29.0,61,0.00,,---,0.00,VWS V14.01,2013-02-07 19:12:00,
2013-02-07 10:13:00,5.9,-5.0,29.45,ENE,74,20.0,32.0,60,0.00,,---,0.00,VWS V14.01,2013-02-07 19:13:00,
2013-02-07 10:15:00,5.8,-4.7,29.45,NE,42,29.0,36.0,61,0.00,,---,0.00,VWS V14.01,2013-02-07 19:15:00,
2013-02-07 10:16:00,6.5,-4.8,29.45,NE,51,28.0,32.0,59,0.00,,---,0.00,VWS V14.01,2013-02-07 19:16:00,
2013-02-07 10:17:00,6.1,-5.1,29.45,ENE,73,10.0,22.0,59,0.00,,---,0.00,VWS V14.01,2013-02-07 19:17:00,
2013-02-07 10:18:00,5.8,-5.4,29.43,ENE,69,23.0,27.0,59,0.00,,---,0.00,VWS V14.01,2013-02-07 19:18:00,
2013-02-07 10:20:00,6.5,-4.8,29.45,ENE,68,15.0,32.0,59,0.00,,---,0.00,VWS V14.01,2013-02-07 19:20:00,
2013-02-07 10:21:00,5.3,-4.9,29.42,East,86,13.0,35.0,62,0.00,,---,0.00,VWS V14.01,2013-02-07 19:21:00,
2013-02-07 10:22:00,5.3,-4.9,29.45,ENE,67,30.0,31.0,62,0.00,,---,0.00,VWS V14.01,2013-02-07 19:22:00,
2013-02-07 10:23:00,5.3,-4.9,29.44,ENE,76,25.0,31.0,62,0.00,,---,0.00,VWS V14.01,2013-02-07 19:23:00,
2013-02-07 10:25:00,5.3,-4.9,29.42,NE,38,12.0,35.0,62,0.00,,---,0.00,VWS V14.01,2013-02-07 19:25:00,
2013-02-07 10:27:00,5.1,-5.1,29.43,NE,42,29.0,34.0,62,0.00,,---,0.00,VWS V14.01,2013-02-07 19:27:00,
2013-02-07 10:28:00,5.1,-5.1,29.45,NE,45,21.0,35.0,62,0.00,,---,0.00,VWS V14.01,2013-02-07 19:28:00,
2013-02-07 10:30:00,5.1,-5.1,29.43,NE,38,31.0,34.0,62,0.00,,---,0.00,VWS V14.01,2013-02-07 19:30:00,
2013-02-07 10:32:00,4.9,-4.9,29.43,ENE,60,25.0,30.0,63,0.00,,---,0.00,VWS V14.01,2013-02-07 19:32:00,
2013-02-07 10:33:00,5.0,-4.8,29.43,East,80,22.0,32.0,63,0.00,,---,0.00,VWS V14.01,2013-02-07 19:33:00,
2013-02-07 10:35:00,4.9,-4.9,29.43,NE,48,30.0,35.0,63,0.00,,---,0.00,VWS V14.01,2013-02-07 19:35:00,
2013-02-07 10:38:00,4.6,-5.5,29.44,East,82,20.0,30.0,62,0.00,,---,0.00,VWS V14.01,2013-02-07 19:38:00,
2013-02-07 10:39:00,4.7,-5.8,29.44,NE,46,16.0,30.0,61,0.00,,---,0.00,VWS V14.01,2013-02-07 19:39:00,
2013-02-07 10:40:00,4.9,-5.6,29.44,NE,44,21.0,34.0,61,0.00,,---,0.00,VWS V14.01,2013-02-07 19:40:00,
2013-02-07 10:43:00,5.7,-5.5,29.43,ENE,61,14.0,23.0,59,0.00,,---,0.00,VWS V14.01,2013-02-07 19:43:00,
2013-02-07 10:44:00,5.6,-5.6,29.43,North,355,15.0,23.0,59,0.00,,---,0.00,VWS V14.01,2013-02-07 19:44:00,
2013-02-07 10:45:00,5.7,-5.5,29.44,ENE,70,20.0,32.0,59,0.00,,---,0.00,VWS V14.01,2013-02-07 19:45:00,
2013-02-07 10:48:00,6.3,-3.6,29.43,NNE,13,35.0,35.0,63,0.00,,---,0.00,VWS V14.01,2013-02-07 19:48:00,
2013-02-07 10:49:00,7.0,-2.9,29.45,NNE,29,14.0,35.0,63,0.00,,---,0.00,VWS V14.01,2013-02-07 19:49:00,
2013-02-07 10:50:00,5.7,-3.8,29.43,NNE,32,11.0,38.0,64,0.00,,---,0.00,VWS V14.01,2013-02-07 19:50:00,
2013-02-07 10:53:00,6.6,-4.3,29.43,North,360,22.0,32.0,60,0.00,,---,0.00,VWS V14.01,2013-02-07 19:53:00,
2013-02-07 10:54:00,6.4,-4.9,29.44,NNE,32,22.0,32.0,59,0.00,,---,0.00,VWS V14.01,2013-02-07 19:54:00,
2013-02-07 10:55:00,6.8,-4.5,29.43,North,5,20.0,35.0,59,0.00,,---,0.00,VWS V14.01,2013-02-07 19:55:00,
2013-02-07 10:58:00,6.0,-4.2,29.43,ENE,65,5.0,36.0,62,0.00,,---,0.00,VWS V14.01,2013-02-07 19:58:00,
2013-02-07 10:59:00,6.0,-4.2,29.43,NE,54,10.0,36.0,62,0.00,,---,0.00,VWS V14.01,2013-02-07 19:59:00,
2013-02-07 11:00:00,5.6,-4.6,29.42,NNW,335,30.0,35.0,62,0.00,,---,0.00,VWS V14.01,2013-02-07 20:00:00,
2013-02-07 11:04:00,5.6,-4.9,29.42,NNE,30,22.0,42.0,61,0.00,,---,0.00,VWS V14.01,2013-02-07 20:04:00,
2013-02-07 11:05:00,6.3,-4.6,29.43,North,5,38.0,38.0,60,0.00,,---,0.00,VWS V14.01,2013-02-07 20:05:00,
2013-02-07 11:09:00,4.6,-4.9,29.43,North,5,29.0,35.0,64,0.00,,---,0.00,VWS V14.01,2013-02-07 20:09:00,
2013-02-07 11:10:00,4.6,-4.9,29.41,North,355,17.0,35.0,64,0.00,,---,0.00,VWS V14.01,2013-02-07 20:10:00,
2013-02-07 11:14:00,4.5,-4.7,29.41,NNW,348,27.0,38.0,65,0.00,,---,0.00,VWS V14.01,2013-02-07 20:14:00,
2013-02-07 11:15:00,4.6,-4.6,29.42,North,5,22.0,38.0,65,0.00,,---,0.00,VWS V14.01,2013-02-07 20:15:00,
2013-02-07 11:16:00,4.4,-4.4,29.41,NNE,15,20.0,38.0,66,0.00,,---,0.00,VWS V14.01,2013-02-07 20:16:00,
2013-02-07 11:19:00,4.5,-4.3,29.41,North,355,18.0,36.0,66,0.00,,---,0.00,VWS V14.01,2013-02-07 20:19:00,
2013-02-07 11:20:00,4.4,-4.8,29.42,NNE,13,34.0,38.0,65,0.00,,---,0.00,VWS V14.01,2013-02-07 20:20:00,
2013-02-07 11:21:00,4.4,-4.4,29.41,North,5,29.0,41.0,66,0.00,,---,0.00,VWS V14.01,2013-02-07 20:21:00,
2013-02-07 11:24:00,4.7,-3.8,29.40,North,355,17.0,40.0,67,0.00,,---,0.00,VWS V14.01,2013-02-07 20:24:00,
2013-02-07 11:25:00,4.8,-3.7,29.39,North,349,41.0,41.0,67,0.00,,---,0.00,VWS V14.01,2013-02-07 20:25:00,
2013-02-07 11:26:00,4.8,-4.1,29.40,NNE,13,34.0,41.0,66,0.00,,---,0.00,VWS V14.01,2013-02-07 20:26:00,
2013-02-07 11:29:00,4.9,-4.0,29.41,NE,41,12.0,39.0,66,0.00,,---,0.00,VWS V14.01,2013-02-07 20:29:00,
2013-02-07 11:30:00,4.9,-4.0,29.41,NNE,22,23.0,39.0,66,0.00,,---,0.00,VWS V14.01,2013-02-07 20:30:00,
2013-02-07 11:31:00,4.9,-4.0,29.41,North,355,26.0,39.0,66,0.00,,---,0.00,VWS V14.01,2013-02-07 20:31:00,
2013-02-07 11:35:00,5.2,-3.7,29.40,North,5,39.0,42.0,66,0.00,,---,0.00,VWS V14.01,2013-02-07 20:35:00,
2013-02-07 11:36:00,5.1,-3.8,29.40,NNW,336,17.0,42.0,66,0.00,,---,0.00,VWS V14.01,2013-02-07 20:36:00,
2013-02-07 11:40:00,5.2,-3.7,29.39,North,360,31.0,37.0,66,0.00,,---,0.00,VWS V14.01,2013-02-07 20:40:00,
2013-02-07 11:41:00,5.2,-3.7,29.39,North,360,20.0,37.0,66,0.00,,---,0.00,VWS V14.01,2013-02-07 20:41:00,
2013-02-07 11:45:00,5.2,-3.3,29.38,North,360,27.0,37.0,67,0.00,,---,0.00,VWS V14.01,2013-02-07 20:45:00,
2013-02-07 11:46:00,5.2,-3.3,29.38,North,360,23.0,37.0,67,0.00,,---,0.00,VWS V14.01,2013-02-07 20:46:00,
2013-02-07 11:50:00,5.1,-3.5,29.39,North,360,25.0,39.0,67,0.00,,---,0.00,VWS V14.01,2013-02-07 20:50:00,
2013-02-07 11:51:00,5.2,-3.3,29.39,North,355,37.0,41.0,67,0.00,,---,0.00,VWS V14.01,2013-02-07 20:51:00,
2013-02-07 11:55:00,5.3,-3.3,29.38,North,355,32.0,38.0,67,0.00,,---,0.00,VWS V14.01,2013-02-07 20:55:00,
2013-02-07 11:56:00,5.3,-3.3,29.39,North,5,30.0,38.0,67,0.00,,---,0.00,VWS V14.01,2013-02-07 20:56:00,
2013-02-07 12:00:00,5.4,-3.2,29.39,North,355,26.0,41.0,67,0.00,,---,0.00,VWS V14.01,2013-02-07 21:00:00,
2013-02-07 12:01:00,5.5,-3.1,29.39,NNE,13,25.0,40.0,67,0.00,,---,0.00,VWS V14.01,2013-02-07 21:01:00,
2013-02-07 12:05:00,5.5,-3.1,29.39,North,360,25.0,40.0,67,0.00,,---,0.00,VWS V14.01,2013-02-07 21:05:00,
2013-02-07 12:06:00,5.5,-3.1,29.39,North,355,26.0,33.0,67,0.00,,---,0.00,VWS V14.01,2013-02-07 21:06:00,
2013-02-07 12:10:00,5.4,-3.5,29.38,NNW,348,30.0,34.0,66,0.00,,---,0.00,VWS V14.01,2013-02-07 21:10:00,
2013-02-07 12:11:00,5.6,-3.0,29.39,North,5,29.0,36.0,67,0.00,,---,0.00,VWS V14.01,2013-02-07 21:11:00,
2013-02-07 12:12:00,5.6,-3.0,29.39,North,360,28.0,36.0,67,0.00,,---,0.00,VWS V14.01,2013-02-07 21:12:00,
2013-02-07 12:15:00,5.6,-3.0,29.39,North,5,26.0,36.0,67,0.00,,---,0.00,VWS V14.01,2013-02-07 21:15:00,
2013-02-07 12:16:00,5.6,-3.0,29.39,NNE,22,26.0,39.0,67,0.00,,---,0.00,VWS V14.01,2013-02-07 21:16:00,
2013-02-07 12:17:00,5.7,-2.6,29.39,North,355,25.0,39.0,68,0.00,,---,0.00,VWS V14.01,2013-02-07 21:17:00,
2013-02-07 12:20:00,5.7,-2.6,29.39,North,355,25.0,39.0,68,0.00,,---,0.00,VWS V14.01,2013-02-07 21:20:00,
2013-02-07 12:21:00,6.0,-2.3,29.38,NNE,17,24.0,37.0,68,0.00,,---,0.00,VWS V14.01,2013-02-07 21:21:00,
2013-02-07 12:22:00,6.0,-2.6,29.38,North,355,27.0,37.0,67,0.00,,---,0.00,VWS V14.01,2013-02-07 21:22:00,
2013-02-07 12:25:00,6.0,-2.6,29.38,North,355,27.0,37.0,67,0.00,,---,0.00,VWS V14.01,2013-02-07 21:25:00,
2013-02-07 12:27:00,6.0,-2.6,29.38,North,5,25.0,37.0,67,0.00,,---,0.00,VWS V14.01,2013-02-07 21:27:00,
2013-02-07 12:30:00,6.0,-2.6,29.38,North,5,25.0,37.0,67,0.00,,---,0.00,VWS V14.01,2013-02-07 21:30:00,
2013-02-07 12:32:00,5.8,-2.8,29.38,NNE,15,28.0,31.0,67,0.00,,---,0.00,VWS V14.01,2013-02-07 21:32:00,
2013-02-07 12:33:00,5.7,-2.9,29.38,North,355,25.0,33.0,67,0.00,,---,0.00,VWS V14.01,2013-02-07 21:33:00,
2013-02-07 12:35:00,5.8,-2.8,29.38,NNE,15,29.0,43.0,67,0.00,,---,0.00,VWS V14.01,2013-02-07 21:35:00,
2013-02-07 12:37:00,5.3,-3.3,29.37,NNE,24,30.0,30.0,67,0.00,,---,0.00,VWS V14.01,2013-02-07 21:37:00,
2013-02-07 12:38:00,5.3,-3.0,29.38,NNW,345,25.0,40.0,68,0.00,,---,0.00,VWS V14.01,2013-02-07 21:38:00,
2013-02-07 12:40:00,5.3,-3.3,29.38,North,9,23.0,39.0,67,0.00,,---,0.00,VWS V14.01,2013-02-07 21:40:00,
2013-02-07 12:42:00,5.1,-3.1,29.38,North,360,25.0,36.0,68,0.00,,---,0.00,VWS V14.01,2013-02-07 21:42:00,
2013-02-07 12:43:00,5.1,-3.5,29.38,NNE,13,26.0,36.0,67,0.00,,---,0.00,VWS V14.01,2013-02-07 21:43:00,
2013-02-07 12:45:00,5.1,-3.1,29.38,North,360,33.0,41.0,68,0.00,,---,0.00,VWS V14.01,2013-02-07 21:45:00,
2013-02-07 12:47:00,5.3,-3.3,29.38,North,360,20.0,33.0,67,0.00,,---,0.00,VWS V14.01,2013-02-07 21:47:00,
2013-02-07 12:48:00,5.3,-3.3,29.38,North,355,27.0,33.0,67,0.00,,---,0.00,VWS V14.01,2013-02-07 21:48:00,
2013-02-07 12:50:00,5.3,-3.0,29.38,North,351,24.0,38.0,68,0.00,,---,0.00,VWS V14.01,2013-02-07 21:50:00,
2013-02-07 12:53:00,5.6,-3.3,29.39,North,10,18.0,30.0,66,0.00,,---,0.00,VWS V14.01,2013-02-07 21:53:00,
2013-02-07 12:55:00,5.5,-3.4,29.38,North,355,20.0,42.0,66,0.00,,---,0.00,VWS V14.01,2013-02-07 21:55:00,
2013-02-07 12:58:00,6.0,-2.9,29.39,North,355,26.0,26.0,66,0.00,,---,0.00,VWS V14.01,2013-02-07 21:58:00,
2013-02-07 12:59:00,6.0,-2.9,29.39,North,355,26.0,26.0,66,0.00,,---,0.00,VWS V14.01,2013-02-07 21:59:00,
2013-02-07 13:00:00,6.0,-2.9,29.39,North,360,25.0,33.0,66,0.00,,---,0.00,VWS V14.01,2013-02-07 22:00:00,
2013-02-07 13:03:00,5.2,-5.0,29.39,NNE,18,15.0,22.0,62,0.00,,---,0.00,VWS V14.01,2013-02-07 22:03:00,
2013-02-07 13:04:00,5.3,-4.9,29.38,NNE,15,5.0,22.0,62,0.00,,---,0.00,VWS V14.01,2013-02-07 22:04:00,
2013-02-07 13:05:00,5.2,-5.0,29.39,NNW,344,5.0,26.0,62,0.00,,---,0.00,VWS V14.01,2013-02-07 22:05:00,
2013-02-07 13:08:00,5.4,-5.1,29.39,North,360,6.0,13.0,61,0.00,,---,0.00,VWS V14.01,2013-02-07 22:08:00,
2013-02-07 13:09:00,5.4,-5.1,29.39,NW,325,4.0,13.0,61,0.00,,---,0.00,VWS V14.01,2013-02-07 22:09:00,
2013-02-07 13:10:00,5.4,-4.8,29.39,SSW,207,9.0,22.0,62,0.00,,---,0.00,VWS V14.01,2013-02-07 22:10:00,
2013-02-07 13:13:00,5.6,-4.9,29.38,NE,36,11.0,17.0,61,0.00,,---,0.00,VWS V14.01,2013-02-07 22:13:00,
2013-02-07 13:14:00,5.6,-4.9,29.38,NE,36,11.0,17.0,61,0.00,,---,0.00,VWS V14.01,2013-02-07 22:14:00,
2013-02-07 13:15:00,5.6,-4.9,29.38,NE,55,16.0,23.0,61,0.00,,---,0.00,VWS V14.01,2013-02-07 22:15:00,
2013-02-07 13:19:00,5.9,-5.0,29.37,North,360,15.0,23.0,60,0.00,,---,0.00,VWS V14.01,2013-02-07 22:19:00,
2013-02-07 13:20:00,5.9,-4.6,29.39,NE,39,16.0,22.0,61,0.00,,---,0.00,VWS V14.01,2013-02-07 22:20:00,
2013-02-07 13:24:00,6.0,-4.2,29.37,NE,49,24.0,31.0,62,0.00,,---,0.00,VWS V14.01,2013-02-07 22:24:00,
2013-02-07 13:25:00,6.0,-4.2,29.38,NE,38,22.0,32.0,62,0.00,,---,0.00,VWS V14.01,2013-02-07 22:25:00,
2013-02-07 13:29:00,6.1,-4.1,29.39,ENE,58,17.0,31.0,62,0.00,,---,0.00,VWS V14.01,2013-02-07 22:29:00,
2013-02-07 13:30:00,6.0,-4.2,29.38,NNE,25,12.0,31.0,62,0.00,,---,0.00,VWS V14.01,2013-02-07 22:30:00,
2013-02-07 13:34:00,5.8,-4.1,29.38,NNE,30,14.0,33.0,63,0.00,,---,0.00,VWS V14.01,2013-02-07 22:34:00,
2013-02-07 13:35:00,5.8,-4.1,29.38,NNE,27,21.0,33.0,63,0.00,,---,0.00,VWS V14.01,2013-02-07 22:35:00,
2013-02-07 13:40:00,5.5,-4.7,29.38,North,11,14.0,34.0,62,0.00,,---,0.00,VWS V14.01,2013-02-07 22:40:00,
2013-02-07 13:45:00,5.6,-4.3,29.38,ENE,74,22.0,32.0,63,0.00,,---,0.00,VWS V14.01,2013-02-07 22:45:00,
2013-02-07 13:50:00,5.2,-3.7,29.37,NNE,26,26.0,37.0,66,0.00,,---,0.00,VWS V14.01,2013-02-07 22:50:00,
2013-02-07 13:55:00,5.6,-3.0,29.37,NNE,13,35.0,36.0,67,0.00,,---,0.00,VWS V14.01,2013-02-07 22:55:00,
2013-02-07 13:56:00,5.4,-3.2,29.37,NNE,14,23.0,36.0,67,0.00,,---,0.00,VWS V14.01,2013-02-07 22:56:00,
2013-02-07 14:00:00,5.8,-2.8,29.37,North,5,29.0,39.0,67,0.00,,---,0.00,VWS V14.01,2013-02-07 23:00:00,
2013-02-07 14:01:00,5.8,-2.8,29.37,North,360,33.0,39.0,67,0.00,,---,0.00,VWS V14.01,2013-02-07 23:01:00,
2013-02-07 14:05:00,5.6,-3.0,29.38,North,5,30.0,39.0,67,0.00,,---,0.00,VWS V14.01,2013-02-07 23:05:00,
2013-02-07 14:06:00,4.9,-3.3,29.37,North,360,30.0,37.0,68,0.00,,---,0.00,VWS V14.01,2013-02-07 23:06:00,
2013-02-07 14:10:00,4.9,-3.3,29.37,North,11,30.0,37.0,68,0.00,,---,0.00,VWS V14.01,2013-02-07 23:10:00,
2013-02-07 14:11:00,5.8,-2.5,29.37,North,5,28.0,39.0,68,0.00,,---,0.00,VWS V14.01,2013-02-07 23:11:00,
2013-02-07 14:12:00,6.1,-2.5,29.37,North,355,28.0,29.0,67,0.00,,---,0.00,VWS V14.01,2013-02-07 23:12:00,
2013-02-07 14:15:00,6.0,-2.6,29.37,North,5,29.0,43.0,67,0.00,,---,0.00,VWS V14.01,2013-02-07 23:15:00,
2013-02-07 14:16:00,6.3,-2.3,29.36,North,355,32.0,38.0,67,0.00,,---,0.00,VWS V14.01,2013-02-07 23:16:00,
2013-02-07 14:17:00,6.3,-2.3,29.36,North,5,29.0,29.0,67,0.00,,---,0.00,VWS V14.01,2013-02-07 23:17:00,
2013-02-07 14:20:00,6.3,-2.3,29.36,North,5,29.0,38.0,67,0.00,,---,0.00,VWS V14.01,2013-02-07 23:20:00,
2013-02-07 14:21:00,6.5,-2.1,29.37,North,5,38.0,38.0,67,0.00,,---,0.00,VWS V14.01,2013-02-07 23:21:00,
2013-02-07 14:22:00,6.5,-2.1,29.37,NNW,344,17.0,24.0,67,0.00,,---,0.00,VWS V14.01,2013-02-07 23:22:00,
2013-02-07 14:25:00,6.5,-2.1,29.37,NNE,14,24.0,38.0,67,0.00,,---,0.00,VWS V14.01,2013-02-07 23:25:00,
2013-02-07 14:26:00,6.9,-1.7,29.36,North,355,35.0,39.0,67,0.00,,---,0.00,VWS V14.01,2013-02-07 23:26:00,
2013-02-07 14:27:00,7.0,-1.6,29.36,NNW,348,30.0,32.0,67,0.00,,---,0.00,VWS V14.01,2013-02-07 23:27:00,
2013-02-07 14:30:00,7.0,-1.6,29.36,NNW,339,32.0,39.0,67,0.00,,---,0.00,VWS V14.01,2013-02-07 23:30:00,
2013-02-07 14:31:00,6.9,-2.0,29.36,NNW,343,27.0,36.0,66,0.00,,---,0.00,VWS V14.01,2013-02-07 23:31:00,
2013-02-07 14:32:00,6.9,-2.0,29.36,NNW,348,27.0,27.0,66,0.00,,---,0.00,VWS V14.01,2013-02-07 23:32:00,
2013-02-07 14:35:00,6.9,-2.0,29.36,North,351,23.0,36.0,66,0.00,,---,0.00,VWS V14.01,2013-02-07 23:35:00,
2013-02-07 14:37:00,7.2,-1.8,29.36,NNW,339,29.0,30.0,66,0.00,,---,0.00,VWS V14.01,2013-02-07 23:37:00,
2013-02-07 14:40:00,7.2,-1.8,29.36,NW,321,30.0,41.0,66,0.00,,---,0.00,VWS V14.01,2013-02-07 23:40:00,
2013-02-07 14:42:00,7.1,-1.9,29.36,NNW,340,32.0,32.0,66,0.00,,---,0.00,VWS V14.01,2013-02-07 23:42:00,
2013-02-07 14:43:00,7.1,-1.9,29.36,North,5,30.0,32.0,66,0.00,,---,0.00,VWS V14.01,2013-02-07 23:43:00,
2013-02-07 14:45:00,7.1,-1.9,29.36,North,350,29.0,39.0,66,0.00,,---,0.00,VWS V14.01,2013-02-07 23:45:00,
2013-02-07 14:47:00,6.9,-2.0,29.37,North,11,24.0,31.0,66,0.00,,---,0.00,VWS V14.01,2013-02-07 23:47:00,
2013-02-07 14:48:00,6.8,-2.1,29.36,NNW,344,30.0,36.0,66,0.00,,---,0.00,VWS V14.01,2013-02-07 23:48:00,
2013-02-07 14:50:00,6.9,-2.0,29.36,North,355,25.0,35.0,66,0.00,,---,0.00,VWS V14.01,2013-02-07 23:50:00,
2013-02-07 14:52:00,6.9,-2.0,29.36,North,10,30.0,36.0,66,0.00,,---,0.00,VWS V14.01,2013-02-07 23:52:00,
2013-02-07 14:53:00,6.9,-2.0,29.37,North,10,30.0,36.0,66,0.00,,---,0.00,VWS V14.01,2013-02-07 23:53:00,
2013-02-07 14:55:00,6.9,-2.0,29.37,North,355,25.0,36.0,66,0.00,,---,0.00,VWS V14.01,2013-02-07 23:55:00,
2013-02-07 14:57:00,6.9,-2.0,29.36,NNE,23,27.0,30.0,66,0.00,,---,0.00,VWS V14.01,2013-02-07 23:57:00,
2013-02-07 14:58:00,6.9,-2.0,29.37,NE,54,29.0,30.0,66,0.00,,---,0.00,VWS V14.01,2013-02-07 23:58:00,
2013-02-07 15:00:00,7.0,-2.0,29.37,North,355,30.0,36.0,66,0.00,,---,0.00,VWS V14.01,2013-02-08 00:00:00,
2013-02-07 15:03:00,6.9,-2.0,29.36,North,9,31.0,35.0,66,0.00,,---,0.00,VWS V14.01,2013-02-08 00:03:00,
2013-02-07 15:05:00,6.9,-2.0,29.36,North,10,35.0,37.0,66,0.00,,---,0.00,VWS V14.01,2013-02-08 00:05:00,
2013-02-07 15:08:00,7.0,-2.3,29.36,NNE,22,20.0,30.0,65,0.00,,---,0.00,VWS V14.01,2013-02-08 00:08:00,
2013-02-07 15:10:00,7.1,-2.2,29.37,NNE,14,29.0,37.0,65,0.00,,---,0.00,VWS V14.01,2013-02-08 00:10:00,
2013-02-07 15:13:00,7.0,-2.3,29.36,NNW,348,17.0,35.0,65,0.00,,---,0.00,VWS V14.01,2013-02-08 00:13:00,
2013-02-07 15:15:00,7.0,-2.3,29.36,North,9,23.0,39.0,65,0.00,,---,0.00,VWS V14.01,2013-02-08 00:15:00,
2013-02-07 15:18:00,6.7,-2.5,29.36,North,5,26.0,36.0,65,0.00,,---,0.00,VWS V14.01,2013-02-08 00:18:00,
2013-02-07 15:19:00,6.5,-2.7,29.36,NNE,21,22.0,36.0,65,0.00,,---,0.00,VWS V14.01,2013-02-08 00:19:00,
2013-02-07 15:20:00,7.1,-1.9,29.35,North,360,34.0,41.0,66,0.00,,---,0.00,VWS V14.01,2013-02-08 00:20:00,
2013-02-07 15:23:00,6.9,-2.4,29.36,NNE,13,38.0,40.0,65,0.00,,---,0.00,VWS V14.01,2013-02-08 00:23:00,
2013-02-07 15:24:00,7.2,-2.1,29.35,ENE,57,17.0,40.0,65,0.00,,---,0.00,VWS V14.01,2013-02-08 00:24:00,
2013-02-07 15:25:00,6.9,-2.4,29.36,NNE,16,23.0,41.0,65,0.00,,---,0.00,VWS V14.01,2013-02-08 00:25:00,
2013-02-07 15:29:00,6.5,-4.1,29.35,NE,53,15.0,35.0,61,0.00,,---,0.00,VWS V14.01,2013-02-08 00:29:00,
2013-02-07 15:30:00,7.4,-3.2,29.36,NE,49,35.0,40.0,61,0.00,,---,0.00,VWS V14.01,2013-02-08 00:30:00,
2013-02-07 15:34:00,5.3,-4.5,29.36,NE,53,18.0,35.0,63,0.00,,---,0.00,VWS V14.01,2013-02-08 00:34:00,
2013-02-07 15:35:00,5.7,-4.5,29.36,NE,48,23.0,35.0,62,0.00,,---,0.00,VWS V14.01,2013-02-08 00:35:00,
2013-02-07 15:39:00,5.2,-4.0,29.35,ENE,63,26.0,34.0,65,0.00,,---,0.00,VWS V14.01,2013-02-08 00:39:00,
2013-02-07 15:40:00,4.6,-4.9,29.36,NE,55,30.0,36.0,64,0.00,,---,0.00,VWS V14.01,2013-02-08 00:40:00,
2013-02-07 15:44:00,4.6,-4.9,29.35,NE,51,24.0,32.0,64,0.00,,---,0.00,VWS V14.01,2013-02-08 00:44:00,
2013-02-07 15:45:00,4.6,-4.9,29.36,ENE,61,23.0,32.0,64,0.00,,---,0.00,VWS V14.01,2013-02-08 00:45:00,
2013-02-07 15:50:00,5.1,-4.4,29.36,NNE,21,11.0,29.0,64,0.00,,---,0.00,VWS V14.01,2013-02-08 00:50:00,
2013-02-07 15:54:00,5.0,-4.5,29.35,NNE,30,20.0,34.0,64,0.00,,---,0.00,VWS V14.01,2013-02-08 00:54:00,
2013-02-07 15:55:00,5.2,-4.3,29.35,ENE,65,26.0,34.0,64,0.00,,---,0.00,VWS V14.01,2013-02-08 00:55:00,
2013-02-07 15:59:00,5.5,-4.3,29.35,NE,40,17.0,26.0,63,0.00,,---,0.00,VWS V14.01,2013-02-08 00:59:00,
2013-02-07 16:00:00,5.4,-4.4,29.35,NE,51,14.0,26.0,63,0.00,,---,0.00,VWS V14.01,2013-02-08 01:00:00,
2013-02-07 16:05:00,5.9,-4.3,29.36,NE,46,22.0,26.0,62,0.00,,---,0.00,VWS V14.01,2013-02-08 01:05:00,
2013-02-07 16:10:00,6.1,-4.1,29.35,NE,40,18.0,29.0,62,0.00,,---,0.00,VWS V14.01,2013-02-08 01:10:00,
2013-02-07 16:11:00,6.0,-4.2,29.36,ENE,62,22.0,29.0,62,0.00,,---,0.00,VWS V14.01,2013-02-08 01:11:00,
2013-02-07 16:15:00,5.9,-4.3,29.35,ENE,60,25.0,29.0,62,0.00,,---,0.00,VWS V14.01,2013-02-08 01:15:00,
2013-02-07 16:16:00,6.0,-4.2,29.35,NE,51,18.0,29.0,62,0.00,,---,0.00,VWS V14.01,2013-02-08 01:16:00,
2013-02-07 16:20:00,5.8,-4.4,29.35,NE,36,20.0,31.0,62,0.00,,---,0.00,VWS V14.01,2013-02-08 01:20:00,
2013-02-07 16:21:00,5.5,-4.7,29.36,ENE,63,26.0,31.0,62,0.00,,---,0.00,VWS V14.01,2013-02-08 01:21:00,
2013-02-07 16:25:00,5.6,-4.6,29.36,NE,40,13.0,33.0,62,0.00,,---,0.00,VWS V14.01,2013-02-08 01:25:00,
2013-02-07 16:26:00,5.6,-4.6,29.35,NE,36,27.0,33.0,62,0.00,,---,0.00,VWS V14.01,2013-02-08 01:26:00,
2013-02-07 16:30:00,6.1,-4.1,29.36,NE,36,16.0,26.0,62,0.00,,---,0.00,VWS V14.01,2013-02-08 01:30:00,
2013-02-07 16:31:00,6.1,-4.1,29.35,NE,34,22.0,26.0,62,0.00,,---,0.00,VWS V14.01,2013-02-08 01:31:00,
2013-02-07 16:32:00,6.2,-4.0,29.36,NNE,33,24.0,24.0,62,0.00,,---,0.00,VWS V14.01,2013-02-08 01:32:00,
2013-02-07 16:35:00,6.1,-4.1,29.35,NE,38,18.0,32.0,62,0.00,,---,0.00,VWS V14.01,2013-02-08 01:35:00,
2013-02-07 16:37:00,6.0,-4.2,29.35,NNE,27,31.0,32.0,62,0.00,,---,0.00,VWS V14.01,2013-02-08 01:37:00,
2013-02-07 16:40:00,6.4,-4.2,29.35,ENE,71,22.0,33.0,61,0.00,,---,0.00,VWS V14.01,2013-02-08 01:40:00,
2013-02-07 16:42:00,6.6,-4.0,29.35,NE,56,17.0,25.0,61,0.00,,---,0.00,VWS V14.01,2013-02-08 01:42:00,
2013-02-07 16:43:00,6.7,-3.9,29.35,NE,44,20.0,31.0,61,0.00,,---,0.00,VWS V14.01,2013-02-08 01:43:00,
2013-02-07 16:45:00,6.9,-3.7,29.35,NNE,21,13.0,31.0,61,0.00,,---,0.00,VWS V14.01,2013-02-08 01:45:00,
2013-02-07 16:47:00,6.7,-3.9,29.35,North,11,13.0,19.0,61,0.00,,---,0.00,VWS V14.01,2013-02-08 01:47:00,
2013-02-07 16:48:00,6.6,-4.0,29.35,ENE,60,15.0,24.0,61,0.00,,---,0.00,VWS V14.01,2013-02-08 01:48:00,
2013-02-07 16:50:00,6.5,-4.1,29.35,NE,49,15.0,27.0,61,0.00,,---,0.00,VWS V14.01,2013-02-08 01:50:00,
2013-02-07 16:52:00,6.7,-3.9,29.34,NNE,21,20.0,22.0,61,0.00,,---,0.00,VWS V14.01,2013-02-08 01:52:00,
2013-02-07 16:54:00,6.5,-4.1,29.35,NNE,27,15.0,29.0,61,0.00,,---,0.00,VWS V14.01,2013-02-08 01:54:00,
2013-02-07 16:55:00,6.4,-4.2,29.34,NE,35,19.0,29.0,61,0.00,,---,0.00,VWS V14.01,2013-02-08 01:55:00,
2013-02-07 16:57:00,6.5,-4.1,29.35,NE,54,18.0,22.0,61,0.00,,---,0.00,VWS V14.01,2013-02-08 01:57:00,
2013-02-07 16:58:00,6.5,-4.1,29.35,NE,56,13.0,22.0,61,0.00,,---,0.00,VWS V14.01,2013-02-08 01:58:00,
2013-02-07 16:59:00,6.7,-3.9,29.34,NNE,31,14.0,22.0,61,0.00,,---,0.00,VWS V14.01,2013-02-08 01:59:00,
2013-02-07 17:00:00,6.9,-3.7,29.35,NE,40,18.0,26.0,61,0.00,,---,0.00,VWS V14.01,2013-02-08 02:00:00,
2013-02-07 17:02:00,6.8,-3.8,29.34,NNE,30,18.0,24.0,61,0.00,,---,0.00,VWS V14.01,2013-02-08 02:02:00,
2013-02-07 17:03:00,6.8,-4.1,29.34,NNE,26,11.0,24.0,60,0.00,,---,0.00,VWS V14.01,2013-02-08 02:03:00,
2013-02-07 17:05:00,7.2,-3.4,29.35,NNE,26,16.0,24.0,61,0.00,,---,0.00,VWS V14.01,2013-02-08 02:05:00,
2013-02-07 17:06:00,7.5,-3.5,29.34,NNE,32,14.0,24.0,60,0.00,,---,0.00,VWS V14.01,2013-02-08 02:06:00,
2013-02-07 17:08:00,7.5,-3.8,29.35,North,355,23.0,26.0,59,0.00,,---,0.00,VWS V14.01,2013-02-08 02:08:00,
2013-02-07 17:10:00,7.6,-3.7,29.34,NNE,13,14.0,26.0,59,0.00,,---,0.00,VWS V14.01,2013-02-08 02:10:00,
2013-02-07 17:11:00,7.7,-3.3,29.35,NE,40,10.0,26.0,60,0.00,,---,0.00,VWS V14.01,2013-02-08 02:11:00,
2013-02-07 17:13:00,7.6,-3.7,29.35,NNE,20,15.0,20.0,59,0.00,,---,0.00,VWS V14.01,2013-02-08 02:13:00,
2013-02-07 17:15:00,7.4,-4.3,29.35,NNE,13,15.0,21.0,58,0.00,,---,0.00,VWS V14.01,2013-02-08 02:15:00,
2013-02-07 17:16:00,7.4,-3.9,29.35,NE,53,16.0,25.0,59,0.00,,---,0.00,VWS V14.01,2013-02-08 02:16:00,
2013-02-07 17:18:00,7.6,-3.7,29.35,NE,36,9.0,25.0,59,0.00,,---,0.00,VWS V14.01,2013-02-08 02:18:00,
2013-02-07 17:19:00,7.6,-3.7,29.35,NNE,32,21.0,25.0,59,0.00,,---,0.00,VWS V14.01,2013-02-08 02:19:00,
2013-02-07 17:20:00,7.9,-3.8,29.36,NNE,31,19.0,25.0,58,0.00,,---,0.00,VWS V14.01,2013-02-08 02:20:00,
2013-02-07 17:21:00,7.9,-3.8,29.36,NNE,17,19.0,25.0,58,0.00,,---,0.00,VWS V14.01,2013-02-08 02:21:00,
2013-02-07 17:23:00,7.9,-3.8,29.36,NNE,16,15.0,17.0,58,0.00,,---,0.00,VWS V14.01,2013-02-08 02:23:00,
2013-02-07 17:24:00,7.9,-3.8,29.36,NNE,26,17.0,17.0,58,0.00,,---,0.00,VWS V14.01,2013-02-08 02:24:00,
2013-02-07 17:25:00,7.8,-4.2,29.36,NNE,15,11.0,21.0,57,0.00,,---,0.00,VWS V14.01,2013-02-08 02:25:00,
2013-02-07 17:26:00,7.9,-3.8,29.36,North,5,14.0,23.0,58,0.00,,---,0.00,VWS V14.01,2013-02-08 02:26:00,
2013-02-07 17:29:00,8.0,-4.1,29.36,NNE,22,14.0,25.0,57,0.00,,---,0.00,VWS V14.01,2013-02-08 02:29:00,
2013-02-07 17:30:00,7.9,-4.2,29.37,NE,39,17.0,25.0,57,0.00,,---,0.00,VWS V14.01,2013-02-08 02:30:00,
2013-02-07 17:31:00,7.9,-4.2,29.36,North,355,20.0,25.0,57,0.00,,---,0.00,VWS V14.01,2013-02-08 02:31:00,
2013-02-07 17:34:00,7.8,-4.6,29.36,NNE,13,18.0,21.0,56,0.00,,---,0.00,VWS V14.01,2013-02-08 02:34:00,
2013-02-07 17:35:00,7.4,-5.0,29.36,NNE,26,20.0,26.0,56,0.00,,---,0.00,VWS V14.01,2013-02-08 02:35:00,
2013-02-07 17:37:00,7.1,-5.3,29.36,NNE,26,16.0,20.0,56,0.00,,---,0.00,VWS V14.01,2013-02-08 02:37:00,
2013-02-07 17:39:00,6.8,-5.2,29.36,NNE,20,13.0,22.0,57,0.00,,---,0.00,VWS V14.01,2013-02-08 02:39:00,
2013-02-07 17:40:00,6.7,-5.3,29.36,NE,44,9.0,22.0,57,0.00,,---,0.00,VWS V14.01,2013-02-08 02:40:00,
2013-02-07 17:41:00,6.7,-4.9,29.35,NNE,23,16.0,22.0,58,0.00,,---,0.00,VWS V14.01,2013-02-08 02:41:00,
2013-02-07 17:42:00,6.9,-4.7,29.35,NNE,21,12.0,18.0,58,0.00,,---,0.00,VWS V14.01,2013-02-08 02:42:00,
2013-02-07 17:44:00,6.8,-4.8,29.36,NE,51,15.0,27.0,58,0.00,,---,0.00,VWS V14.01,2013-02-08 02:44:00,
2013-02-07 17:45:00,6.7,-5.3,29.35,NNE,30,13.0,27.0,57,0.00,,---,0.00,VWS V14.01,2013-02-08 02:45:00,
2013-02-07 17:46:00,6.9,-4.7,29.35,NE,38,19.0,27.0,58,0.00,,---,0.00,VWS V14.01,2013-02-08 02:46:00,
2013-02-07 17:47:00,7.1,-4.6,29.35,NE,37,23.0,25.0,58,0.00,,---,0.00,VWS V14.01,2013-02-08 02:47:00,
2013-02-07 17:50:00,6.7,-4.9,29.35,NE,52,16.0,26.0,58,0.00,,---,0.00,VWS V14.01,2013-02-08 02:50:00,
2013-02-07 17:51:00,6.5,-5.1,29.35,NE,55,17.0,26.0,58,0.00,,---,0.00,VWS V14.01,2013-02-08 02:51:00,
2013-02-07 17:52:00,5.6,-6.0,29.36,NE,50,18.0,23.0,58,0.00,,---,0.00,VWS V14.01,2013-02-08 02:52:00,
2013-02-07 17:55:00,5.4,-5.5,29.36,NE,50,19.0,26.0,60,0.00,,---,0.00,VWS V14.01,2013-02-08 02:55:00,
2013-02-07 17:56:00,5.4,-5.5,29.36,NNE,31,17.0,26.0,60,0.00,,---,0.00,VWS V14.01,2013-02-08 02:56:00,
2013-02-07 17:58:00,5.4,-5.8,29.36,NNE,29,20.0,23.0,59,0.00,,---,0.00,VWS V14.01,2013-02-08 02:58:00,
2013-02-07 18:00:00,6.0,-5.2,29.36,NNE,24,17.0,29.0,59,0.00,,---,0.00,VWS V14.01,2013-02-08 03:00:00,
2013-02-07 18:01:00,6.0,-5.2,29.35,ENE,76,15.0,29.0,59,0.00,,---,0.00,VWS V14.01,2013-02-08 03:01:00,
2013-02-07 18:03:00,5.9,-5.7,29.36,NE,38,14.0,22.0,58,0.00,,---,0.00,VWS V14.01,2013-02-08 03:03:00,
2013-02-07 18:05:00,5.9,-5.3,29.35,NE,51,17.0,29.0,59,0.00,,---,0.00,VWS V14.01,2013-02-08 03:05:00,
2013-02-07 18:06:00,6.3,-5.3,29.36,NE,38,13.0,26.0,58,0.00,,---,0.00,VWS V14.01,2013-02-08 03:06:00,
2013-02-07 18:08:00,6.5,-5.1,29.36,NE,44,20.0,28.0,58,0.00,,---,0.00,VWS V14.01,2013-02-08 03:08:00,
2013-02-07 18:10:00,6.3,-5.3,29.36,NE,54,16.0,26.0,58,0.00,,---,0.00,VWS V14.01,2013-02-08 03:10:00,
2013-02-07 18:11:00,6.6,-5.4,29.36,ENE,72,15.0,28.0,57,0.00,,---,0.00,VWS V14.01,2013-02-08 03:11:00,
2013-02-07 18:12:00,6.6,-5.4,29.36,NNE,19,18.0,28.0,57,0.00,,---,0.00,VWS V14.01,2013-02-08 03:12:00,
2013-02-07 18:13:00,6.6,-5.4,29.36,North,11,17.0,22.0,57,0.00,,---,0.00,VWS V14.01,2013-02-08 03:13:00,
2013-02-07 18:15:00,6.6,-5.4,29.36,NNE,19,18.0,28.0,57,0.00,,---,0.00,VWS V14.01,2013-02-08 03:15:00,
2013-02-07 18:16:00,6.4,-5.6,29.36,NNE,30,16.0,26.0,57,0.00,,---,0.00,VWS V14.01,2013-02-08 03:16:00,
2013-02-07 18:17:00,6.5,-5.5,29.36,NNE,16,19.0,26.0,57,0.00,,---,0.00,VWS V14.01,2013-02-08 03:17:00,
2013-02-07 18:18:00,6.9,-5.1,29.36,NE,49,20.0,21.0,57,0.00,,---,0.00,VWS V14.01,2013-02-08 03:18:00,
2013-02-07 18:20:00,6.5,-5.5,29.36,NE,44,20.0,26.0,57,0.00,,---,0.00,VWS V14.01,2013-02-08 03:20:00,
2013-02-07 18:21:00,6.7,-5.7,29.36,NE,46,16.0,24.0,56,0.00,,---,0.00,VWS V14.01,2013-02-08 03:21:00,
2013-02-07 18:22:00,6.6,-5.8,29.36,ENE,64,15.0,24.0,56,0.00,,---,0.00,VWS V14.01,2013-02-08 03:22:00,
2013-02-07 18:24:00,6.5,-5.8,29.36,NNE,21,9.0,20.0,56,0.00,,---,0.00,VWS V14.01,2013-02-08 03:24:00,
2013-02-07 18:25:00,6.6,-5.8,29.36,ENE,64,15.0,24.0,56,0.00,,---,0.00,VWS V14.01,2013-02-08 03:25:00,
2013-02-07 18:26:00,6.3,-3.9,29.36,NNW,344,30.0,30.0,62,0.00,,---,0.00,VWS V14.01,2013-02-08 03:26:00,
2013-02-07 18:27:00,6.3,-3.9,29.36,North,350,24.0,30.0,62,0.00,,---,0.00,VWS V14.01,2013-02-08 03:27:00,
2013-02-07 18:29:00,6.2,-4.0,29.37,North,351,21.0,25.0,62,0.00,,---,0.00,VWS V14.01,2013-02-08 03:29:00,
2013-02-07 18:30:00,6.3,-3.9,29.36,North,350,24.0,30.0,62,0.00,,---,0.00,VWS V14.01,2013-02-08 03:30:00,
2013-02-07 18:31:00,6.4,-3.8,29.37,NNW,338,13.0,27.0,62,0.00,,---,0.00,VWS V14.01,2013-02-08 03:31:00,
2013-02-07 18:32:00,6.4,-3.8,29.37,North,355,28.0,28.0,62,0.00,,---,0.00,VWS V14.01,2013-02-08 03:32:00,
2013-02-07 18:35:00,6.5,-4.1,29.37,North,355,19.0,29.0,61,0.00,,---,0.00,VWS V14.01,2013-02-08 03:35:00,
2013-02-07 18:37:00,6.4,-4.2,29.37,North,355,12.0,16.0,61,0.00,,---,0.00,VWS V14.01,2013-02-08 03:37:00,
2013-02-07 18:40:00,6.2,-4.4,29.37,NNW,348,17.0,27.0,61,0.00,,---,0.00,VWS V14.01,2013-02-08 03:40:00,
2013-02-07 18:42:00,6.0,-4.6,29.37,NNW,334,21.0,22.0,61,0.00,,---,0.00,VWS V14.01,2013-02-08 03:42:00,
2013-02-07 18:45:00,6.1,-4.4,29.38,NNW,340,12.0,27.0,61,0.00,,---,0.00,VWS V14.01,2013-02-08 03:45:00,
2013-02-07 18:46:00,6.4,-4.2,29.37,NW,325,14.0,28.0,61,0.00,,---,0.00,VWS V14.01,2013-02-08 03:46:00,
2013-02-07 18:47:00,6.4,-4.2,29.37,North,351,16.0,24.0,61,0.00,,---,0.00,VWS V14.01,2013-02-08 03:47:00,
2013-02-07 18:48:00,6.4,-4.2,29.37,North,355,15.0,24.0,61,0.00,,---,0.00,VWS V14.01,2013-02-08 03:48:00,
2013-02-07 18:50:00,6.4,-4.2,29.37,NNW,348,22.0,28.0,61,0.00,,---,0.00,VWS V14.01,2013-02-08 03:50:00,
2013-02-07 18:51:00,6.5,-4.1,29.38,NNW,346,23.0,25.0,61,0.00,,---,0.00,VWS V14.01,2013-02-08 03:51:00,
2013-02-07 18:52:00,6.7,-3.9,29.38,North,355,21.0,22.0,61,0.00,,---,0.00,VWS V14.01,2013-02-08 03:52:00,
2013-02-07 18:53:00,6.7,-3.9,29.38,NW,318,17.0,22.0,61,0.00,,---,0.00,VWS V14.01,2013-02-08 03:53:00,
2013-02-07 18:55:00,6.6,-4.0,29.38,NNW,336,15.0,25.0,61,0.00,,---,0.00,VWS V14.01,2013-02-08 03:55:00,
2013-02-07 18:56:00,6.5,-4.4,29.37,NNW,345,18.0,26.0,60,0.00,,---,0.00,VWS V14.01,2013-02-08 03:56:00,
2013-02-07 18:57:00,6.5,-4.4,29.38,NNW,330,24.0,24.0,60,0.00,,---,0.00,VWS V14.01,2013-02-08 03:57:00,
2013-02-07 18:58:00,6.6,-4.3,29.38,NNW,340,27.0,27.0,60,0.00,,---,0.00,VWS V14.01,2013-02-08 03:58:00,
2013-02-07 19:00:00,6.5,-4.4,29.37,NNW,347,18.0,26.0,60,0.00,,---,0.00,VWS V14.01,2013-02-08 04:00:00,
2013-02-07 19:01:00,6.8,-4.5,29.38,NW,323,16.0,27.0,59,0.00,,---,0.00,VWS V14.01,2013-02-08 04:01:00,
2013-02-07 19:02:00,6.8,-4.1,29.38,North,360,15.0,20.0,60,0.00,,---,0.00,VWS V14.01,2013-02-08 04:02:00,
2013-02-07 19:03:00,6.7,-4.2,29.38,NNW,340,17.0,20.0,60,0.00,,---,0.00,VWS V14.01,2013-02-08 04:03:00,
2013-02-07 19:05:00,6.8,-4.5,29.38,NNW,333,10.0,27.0,59,0.00,,---,0.00,VWS V14.01,2013-02-08 04:05:00,
2013-02-07 19:06:00,6.7,-4.2,29.38,NW,306,13.0,20.0,60,0.00,,---,0.00,VWS V14.01,2013-02-08 04:06:00,
2013-02-07 19:08:00,6.6,-4.3,29.39,North,355,14.0,21.0,60,0.00,,---,0.00,VWS V14.01,2013-02-08 04:08:00,
2013-02-07 19:09:00,6.5,-4.4,29.39,North,350,17.0,26.0,60,0.00,,---,0.00,VWS V14.01,2013-02-08 04:09:00,
2013-02-07 19:10:00,6.7,-4.2,29.38,West,278,10.0,20.0,60,0.00,,---,0.00,VWS V14.01,2013-02-08 04:10:00,
2013-02-07 19:12:00,6.3,-4.6,29.38,NNW,348,14.0,26.0,60,0.00,,---,0.00,VWS V14.01,2013-02-08 04:12:00,
2013-02-07 19:13:00,6.2,-4.7,29.38,NW,325,12.0,24.0,60,0.00,,---,0.00,VWS V14.01,2013-02-08 04:13:00,
2013-02-07 19:14:00,6.2,-4.7,29.38,NNW,346,15.0,24.0,60,0.00,,---,0.00,VWS V14.01,2013-02-08 04:14:00,
2013-02-07 19:15:00,6.3,-4.6,29.38,NNW,348,14.0,26.0,60,0.00,,---,0.00,VWS V14.01,2013-02-08 04:15:00,
2013-02-07 19:17:00,5.9,-5.0,29.38,North,351,13.0,28.0,60,0.00,,---,0.00,VWS V14.01,2013-02-08 04:17:00,
2013-02-07 19:18:00,5.9,-5.0,29.38,NNE,18,18.0,22.0,60,0.00,,---,0.00,VWS V14.01,2013-02-08 04:18:00,
2013-02-07 19:19:00,5.9,-5.0,29.37,NNW,333,20.0,22.0,60,0.00,,---,0.00,VWS V14.01,2013-02-08 04:19:00,
2013-02-07 19:20:00,5.9,-5.0,29.38,North,351,13.0,28.0,60,0.00,,---,0.00,VWS V14.01,2013-02-08 04:20:00,
2013-02-07 19:22:00,5.5,-5.4,29.38,North,355,21.0,22.0,60,0.00,,---,0.00,VWS V14.01,2013-02-08 04:22:00,
2013-02-07 19:23:00,5.5,-5.0,29.38,NNW,339,17.0,27.0,61,0.00,,---,0.00,VWS V14.01,2013-02-08 04:23:00,
2013-02-07 19:24:00,5.5,-5.0,29.38,NNW,339,17.0,27.0,61,0.00,,---,0.00,VWS V14.01,2013-02-08 04:24:00,
2013-02-07 19:25:00,5.5,-5.4,29.38,North,355,21.0,29.0,60,0.00,,---,0.00,VWS V14.01,2013-02-08 04:25:00,
2013-02-07 19:27:00,4.9,-5.9,29.38,NNW,329,17.0,23.0,60,0.00,,---,0.00,VWS V14.01,2013-02-08 04:27:00,
2013-02-07 19:28:00,4.9,-5.6,29.38,NNW,328,22.0,26.0,61,0.00,,---,0.00,VWS V14.01,2013-02-08 04:28:00,
2013-02-07 19:29:00,4.9,-5.6,29.38,NNW,345,19.0,26.0,61,0.00,,---,0.00,VWS V14.01,2013-02-08 04:29:00,
2013-02-07 19:30:00,5.0,-5.5,29.38,NW,324,25.0,28.0,61,0.00,,---,0.00,VWS V14.01,2013-02-08 04:30:00,
2013-02-07 19:32:00,5.1,-5.4,29.38,NNW,338,17.0,28.0,61,0.00,,---,0.00,VWS V14.01,2013-02-08 04:32:00,
2013-02-07 19:34:00,4.6,-6.2,29.38,NNW,345,15.0,29.0,60,0.00,,---,0.00,VWS V14.01,2013-02-08 04:34:00,
2013-02-07 19:35:00,4.5,-6.0,29.38,NNW,348,15.0,29.0,61,0.00,,---,0.00,VWS V14.01,2013-02-08 04:35:00,
2013-02-07 19:38:00,4.5,-6.0,29.39,NNW,334,19.0,24.0,61,0.00,,---,0.00,VWS V14.01,2013-02-08 04:38:00,
2013-02-07 19:39:00,4.6,-5.5,29.39,North,5,19.0,24.0,62,0.00,,---,0.00,VWS V14.01,2013-02-08 04:39:00,
2013-02-07 19:40:00,4.6,-5.5,29.38,NNE,13,22.0,26.0,62,0.00,,---,0.00,VWS V14.01,2013-02-08 04:40:00,
2013-02-07 19:43:00,4.2,-6.2,29.38,North,355,13.0,28.0,61,0.00,,---,0.00,VWS V14.01,2013-02-08 04:43:00,
2013-02-07 19:44:00,4.2,-5.9,29.39,NNW,334,21.0,28.0,62,0.00,,---,0.00,VWS V14.01,2013-02-08 04:44:00,
2013-02-07 19:45:00,4.3,-5.8,29.39,NW,323,22.0,28.0,62,0.00,,---,0.00,VWS V14.01,2013-02-08 04:45:00,
2013-02-07 19:48:00,4.6,-5.9,29.39,North,355,19.0,25.0,61,0.00,,---,0.00,VWS V14.01,2013-02-08 04:48:00,
2013-02-07 19:49:00,4.7,-5.4,29.39,North,355,21.0,27.0,62,0.00,,---,0.00,VWS V14.01,2013-02-08 04:49:00,
2013-02-07 19:50:00,4.7,-5.4,29.39,NNW,342,21.0,27.0,62,0.00,,---,0.00,VWS V14.01,2013-02-08 04:50:00,
2013-02-07 19:53:00,4.8,-5.7,29.39,NNW,335,19.0,34.0,61,0.00,,---,0.00,VWS V14.01,2013-02-08 04:53:00,
2013-02-07 19:54:00,4.7,-5.8,29.39,NNW,338,19.0,34.0,61,0.00,,---,0.00,VWS V14.01,2013-02-08 04:54:00,
2013-02-07 19:55:00,4.7,-5.8,29.39,North,9,24.0,34.0,61,0.00,,---,0.00,VWS V14.01,2013-02-08 04:55:00,
2013-02-07 19:58:00,5.0,-5.5,29.38,North,5,25.0,30.0,61,0.00,,---,0.00,VWS V14.01,2013-02-08 04:58:00,
2013-02-07 20:00:00,4.9,-5.6,29.38,North,355,21.0,30.0,61,0.00,,---,0.00,VWS V14.01,2013-02-08 05:00:00,
2013-02-07 20:05:00,4.5,-6.0,29.38,NNW,343,22.0,30.0,61,0.00,,---,0.00,VWS V14.01,2013-02-08 05:05:00,
2013-02-07 20:10:00,4.4,-6.1,29.38,North,355,12.0,30.0,61,0.00,,---,0.00,VWS V14.01,2013-02-08 05:10:00,
2013-02-07 20:15:00,4.5,-5.6,29.39,North,9,15.0,29.0,62,0.00,,---,0.00,VWS V14.01,2013-02-08 05:15:00,
2013-02-07 20:20:00,4.2,-5.9,29.39,North,360,15.0,32.0,62,0.00,,---,0.00,VWS V14.01,2013-02-08 05:20:00,
2013-02-07 20:21:00,4.2,-5.9,29.39,North,10,20.0,32.0,62,0.00,,---,0.00,VWS V14.01,2013-02-08 05:21:00,
2013-02-07 20:25:00,4.4,-5.7,29.39,NNE,17,13.0,32.0,62,0.00,,---,0.00,VWS V14.01,2013-02-08 05:25:00,
2013-02-07 20:26:00,4.4,-6.1,29.40,WNW,294,11.0,26.0,61,0.00,,---,0.00,VWS V14.01,2013-02-08 05:26:00,
2013-02-07 20:30:00,4.3,-6.2,29.40,North,355,3.0,26.0,61,0.00,,---,0.00,VWS V14.01,2013-02-08 05:30:00,
2013-02-07 20:31:00,4.1,-6.0,29.39,NNW,347,12.0,35.0,62,0.00,,---,0.00,VWS V14.01,2013-02-08 05:31:00,
2013-02-07 20:35:00,4.1,-6.0,29.39,NNW,338,11.0,35.0,62,0.00,,---,0.00,VWS V14.01,2013-02-08 05:35:00,
2013-02-07 20:36:00,4.5,-6.0,29.40,NW,315,9.0,25.0,61,0.00,,---,0.00,VWS V14.01,2013-02-08 05:36:00,
2013-02-07 20:40:00,4.6,-5.9,29.40,WNW,290,7.0,25.0,61,0.00,,---,0.00,VWS V14.01,2013-02-08 05:40:00,
2013-02-07 20:41:00,4.3,-6.2,29.40,NE,48,7.0,18.0,61,0.00,,---,0.00,VWS V14.01,2013-02-08 05:41:00,
2013-02-07 20:42:00,4.2,-6.2,29.40,North,5,5.0,18.0,61,0.00,,---,0.00,VWS V14.01,2013-02-08 05:42:00,
2013-02-07 20:45:00,4.2,-6.2,29.40,NNW,336,7.0,18.0,61,0.00,,---,0.00,VWS V14.01,2013-02-08 05:45:00,
2013-02-07 20:47:00,4.0,-6.4,29.40,NNW,342,6.0,20.0,61,0.00,,---,0.00,VWS V14.01,2013-02-08 05:47:00,
2013-02-07 20:50:00,4.0,-6.4,29.40,NNW,342,5.0,20.0,61,0.00,,---,0.00,VWS V14.01,2013-02-08 05:50:00,
2013-02-07 20:52:00,3.9,-6.9,29.39,NNE,19,16.0,29.0,60,0.00,,---,0.00,VWS V14.01,2013-02-08 05:52:00,
2013-02-07 20:55:00,3.9,-6.9,29.39,NNE,19,16.0,29.0,60,0.00,,---,0.00,VWS V14.01,2013-02-08 05:55:00,
2013-02-07 20:57:00,3.6,-6.8,29.41,North,355,11.0,11.0,61,0.00,,---,0.00,VWS V14.01,2013-02-08 05:57:00,
2013-02-07 21:00:00,3.6,-6.8,29.40,North,355,3.0,30.0,61,0.00,,---,0.00,VWS V14.01,2013-02-08 06:00:00,
2013-02-07 21:02:00,3.8,-7.0,29.40,NNE,19,14.0,14.0,60,0.00,,---,0.00,VWS V14.01,2013-02-08 06:02:00,
2013-02-07 21:05:00,3.8,-7.0,29.40,North,360,8.0,18.0,60,0.00,,---,0.00,VWS V14.01,2013-02-08 06:05:00,
2013-02-07 21:07:00,4.5,-6.7,29.41,North,349,9.0,11.0,59,0.00,,---,0.00,VWS V14.01,2013-02-08 06:07:00,
2013-02-07 21:10:00,4.5,-6.7,29.40,ENE,71,11.0,28.0,59,0.00,,---,0.00,VWS V14.01,2013-02-08 06:10:00,
2013-02-07 21:12:00,4.1,-7.4,29.41,ENE,58,13.0,15.0,58,0.00,,---,0.00,VWS V14.01,2013-02-08 06:12:00,
2013-02-07 21:13:00,4.1,-7.4,29.41,North,5,24.0,24.0,58,0.00,,---,0.00,VWS V14.01,2013-02-08 06:13:00,
2013-02-07 21:15:00,4.2,-7.3,29.40,NNW,329,8.0,28.0,58,0.00,,---,0.00,VWS V14.01,2013-02-08 06:15:00,
2013-02-07 21:18:00,4.4,-6.8,29.42,SE,134,1.0,7.0,59,0.00,,---,0.00,VWS V14.01,2013-02-08 06:18:00,
2013-02-07 21:20:00,4.2,-6.9,29.41,South,178,6.0,24.0,59,0.00,,---,0.00,VWS V14.01,2013-02-08 06:20:00,
2013-02-07 21:23:00,4.4,-7.5,29.41,NNW,337,6.0,15.0,57,0.00,,---,0.00,VWS V14.01,2013-02-08 06:23:00,
2013-02-07 21:24:00,4.2,-7.7,29.41,NE,37,7.0,17.0,57,0.00,,---,0.00,VWS V14.01,2013-02-08 06:24:00,
2013-02-07 21:28:00,3.7,-7.8,29.41,ENE,59,4.0,15.0,58,0.00,,---,0.00,VWS V14.01,2013-02-08 06:28:00,
2013-02-07 21:29:00,3.6,-7.9,29.41,SSE,159,5.0,15.0,58,0.00,,---,0.00,VWS V14.01,2013-02-08 06:29:00,
2013-02-07 21:30:00,4.0,-7.5,29.41,SW,230,7.0,21.0,58,0.00,,---,0.00,VWS V14.01,2013-02-08 06:30:00,
2013-02-07 21:33:00,3.7,-7.8,29.41,NNW,329,9.0,17.0,58,0.00,,---,0.00,VWS V14.01,2013-02-08 06:33:00,
2013-02-07 21:34:00,3.7,-7.8,29.41,SW,233,6.0,17.0,58,0.00,,---,0.00,VWS V14.01,2013-02-08 06:34:00,
2013-02-07 21:35:00,3.7,-7.8,29.42,ENE,72,5.0,22.0,58,0.00,,---,0.00,VWS V14.01,2013-02-08 06:35:00,
2013-02-07 21:38:00,4.2,-6.9,29.42,NNW,333,2.0,6.0,59,0.00,,---,0.00,VWS V14.01,2013-02-08 06:38:00,
2013-02-07 21:39:00,4.2,-6.9,29.42,NNW,333,4.0,6.0,59,0.00,,---,0.00,VWS V14.01,2013-02-08 06:39:00,
2013-02-07 21:40:00,4.0,-7.1,29.42,NNW,348,5.0,17.0,59,0.00,,---,0.00,VWS V14.01,2013-02-08 06:40:00,
2013-02-07 21:44:00,4.4,-6.8,29.42,East,82,3.0,8.0,59,0.00,,---,0.00,VWS V14.01,2013-02-08 06:44:00,
2013-02-07 21:49:00,4.6,-6.9,29.41,North,10,15.0,23.0,58,0.00,,---,0.00,VWS V14.01,2013-02-08 06:49:00,
2013-02-07 21:50:00,4.6,-6.9,29.41,South,187,6.0,23.0,58,0.00,,---,0.00,VWS V14.01,2013-02-08 06:50:00,
2013-02-07 21:54:00,4.1,-7.4,29.42,West,263,4.0,8.0,58,0.00,,---,0.00,VWS V14.01,2013-02-08 06:54:00,
2013-02-07 21:55:00,4.0,-7.5,29.42,West,281,10.0,17.0,58,0.00,,---,0.00,VWS V14.01,2013-02-08 06:55:00,
2013-02-07 21:59:00,2.9,-8.5,29.41,West,260,8.0,12.0,58,0.00,,---,0.00,VWS V14.01,2013-02-08 06:59:00,
2013-02-07 22:00:00,2.8,-8.6,29.41,NNW,327,3.0,12.0,58,0.00,,---,0.00,VWS V14.01,2013-02-08 07:00:00,
2013-02-07 22:04:00,2.6,-8.4,29.42,SSW,213,6.0,14.0,59,0.00,,---,0.00,VWS V14.01,2013-02-08 07:04:00,
2013-02-07 22:05:00,2.6,-8.4,29.42,SSW,192,12.0,14.0,59,0.00,,---,0.00,VWS V14.01,2013-02-08 07:05:00,
2013-02-07 22:09:00,1.7,-9.0,29.43,SW,229,8.0,12.0,60,0.00,,---,0.00,VWS V14.01,2013-02-08 07:09:00,
2013-02-07 22:10:00,1.5,-9.1,29.42,SW,227,8.0,12.0,60,0.00,,---,0.00,VWS V14.01,2013-02-08 07:10:00,
2013-02-07 22:15:00,1.3,-9.0,29.43,WSW,238,5.0,12.0,61,0.00,,---,0.00,VWS V14.01,2013-02-08 07:15:00,
2013-02-07 22:16:00,1.5,-8.5,29.43,WSW,242,3.0,12.0,62,0.00,,---,0.00,VWS V14.01,2013-02-08 07:16:00,
2013-02-07 22:20:00,1.1,-9.5,29.42,SW,235,3.0,10.0,60,0.00,,---,0.00,VWS V14.01,2013-02-08 07:20:00,
2013-02-07 22:21:00,1.1,-9.5,29.42,SW,235,3.0,10.0,60,0.00,,---,0.00,VWS V14.01,2013-02-08 07:21:00,
2013-02-07 22:25:00,-0.6,-11.5,29.42,WNW,297,9.0,14.0,59,0.00,,---,0.00,VWS V14.01,2013-02-08 07:25:00,
2013-02-07 22:26:00,-0.6,-11.5,29.43,NNW,338,6.0,14.0,59,0.00,,---,0.00,VWS V14.01,2013-02-08 07:26:00,
2013-02-07 22:30:00,-0.5,-11.4,29.43,North,5,8.0,18.0,59,0.00,,---,0.00,VWS V14.01,2013-02-08 07:30:00,
2013-02-07 22:31:00,-0.3,-10.9,29.43,NNW,346,6.0,18.0,60,0.00,,---,0.00,VWS V14.01,2013-02-08 07:31:00,
2013-02-07 22:35:00,0.1,-10.5,29.43,NNW,328,10.0,18.0,60,0.00,,---,0.00,VWS V14.01,2013-02-08 07:35:00,
2013-02-07 22:36:00,-0.1,-10.9,29.43,NNW,331,7.0,19.0,59,0.00,,---,0.00,VWS V14.01,2013-02-08 07:36:00,
2013-02-07 22:40:00,0.6,-10.4,29.43,NNW,330,4.0,19.0,59,0.00,,---,0.00,VWS V14.01,2013-02-08 07:40:00,
2013-02-07 22:41:00,-0.3,-11.9,29.42,WNW,286,10.0,13.0,57,0.00,,---,0.00,VWS V14.01,2013-02-08 07:41:00,
2013-02-07 22:45:00,-0.5,-11.7,29.42,North,349,14.0,17.0,58,0.00,,---,0.00,VWS V14.01,2013-02-08 07:45:00,
2013-02-07 22:46:00,-0.6,-11.1,29.43,NW,319,5.0,14.0,60,0.00,,---,0.00,VWS V14.01,2013-02-08 07:46:00,
2013-02-07 22:47:00,-0.7,-11.6,29.43,NW,325,10.0,10.0,59,0.00,,---,0.00,VWS V14.01,2013-02-08 07:47:00,
2013-02-07 22:50:00,-0.7,-11.2,29.43,NNW,327,7.0,14.0,60,0.00,,---,0.00,VWS V14.01,2013-02-08 07:50:00,
2013-02-07 22:51:00,-1.2,-12.1,29.44,NNE,29,6.0,14.0,59,0.00,,---,0.00,VWS V14.01,2013-02-08 07:51:00,
2013-02-07 22:52:00,-1.3,-12.1,29.43,NW,313,10.0,11.0,59,0.00,,---,0.00,VWS V14.01,2013-02-08 07:52:00,
2013-02-07 22:55:00,-1.3,-12.1,29.44,NNW,342,9.0,15.0,59,0.00,,---,0.00,VWS V14.01,2013-02-08 07:55:00,
2013-02-07 22:56:00,-0.6,-11.8,29.43,WNW,300,6.0,14.0,58,0.00,,---,0.00,VWS V14.01,2013-02-08 07:56:00,
2013-02-07 22:57:00,-0.7,-11.9,29.43,NNW,336,5.0,9.0,58,0.00,,---,0.00,VWS V14.01,2013-02-08 07:57:00,
2013-02-07 23:02:00,-1.2,-12.1,29.44,NW,325,7.0,11.0,59,0.00,,---,0.00,VWS V14.01,2013-02-08 08:02:00,
2013-02-07 23:05:00,-1.2,-12.1,29.44,North,355,7.0,11.0,59,0.00,,---,0.00,VWS V14.01,2013-02-08 08:05:00,
2013-02-07 23:07:00,-0.5,-11.4,29.44,NNW,346,5.0,14.0,59,0.00,,---,0.00,VWS V14.01,2013-02-08 08:07:00,
2013-02-07 23:08:00,-0.4,-11.3,29.44,NNW,333,7.0,9.0,59,0.00,,---,0.00,VWS V14.01,2013-02-08 08:08:00,
2013-02-07 23:10:00,-0.5,-11.4,29.44,NNW,346,5.0,14.0,59,0.00,,---,0.00,VWS V14.01,2013-02-08 08:10:00,
2013-02-07 23:12:00,-0.4,-11.3,29.44,NNW,339,8.0,8.0,59,0.00,,---,0.00,VWS V14.01,2013-02-08 08:12:00,
2013-02-07 23:13:00,-0.3,-11.2,29.44,NNW,333,7.0,15.0,59,0.00,,---,0.00,VWS V14.01,2013-02-08 08:13:00,
2013-02-07 23:15:00,-0.4,-11.3,29.44,North,360,5.0,14.0,59,0.00,,---,0.00,VWS V14.01,2013-02-08 08:15:00,
2013-02-07 23:17:00,-0.3,-11.5,29.44,WNW,294,9.0,12.0,58,0.00,,---,0.00,VWS V14.01,2013-02-08 08:17:00,
2013-02-07 23:18:00,-0.3,-11.5,29.44,WNW,298,8.0,13.0,58,0.00,,---,0.00,VWS V14.01,2013-02-08 08:18:00,
2013-02-07 23:20:00,-0.2,-11.4,29.43,NW,317,7.0,15.0,58,0.00,,---,0.00,VWS V14.01,2013-02-08 08:20:00,
2013-02-07 23:22:00,-0.7,-11.9,29.44,NNW,338,10.0,15.0,58,0.00,,---,0.00,VWS V14.01,2013-02-08 08:22:00,
2013-02-07 23:23:00,-0.7,-11.9,29.43,WNW,298,7.0,15.0,58,0.00,,---,0.00,VWS V14.01,2013-02-08 08:23:00,
2013-02-07 23:25:00,-0.6,-11.8,29.44,NW,308,10.0,15.0,58,0.00,,---,0.00,VWS V14.01,2013-02-08 08:25:00,
2013-02-07 23:28:00,-0.5,-11.7,29.44,NW,306,8.0,10.0,58,0.00,,---,0.00,VWS V14.01,2013-02-08 08:28:00,
2013-02-07 23:29:00,-0.5,-11.7,29.44,WNW,294,10.0,12.0,58,0.00,,---,0.00,VWS V14.01,2013-02-08 08:29:00,
2013-02-07 23:30:00,-0.6,-11.5,29.44,West,270,7.0,15.0,59,0.00,,---,0.00,VWS V14.01,2013-02-08 08:30:00,
2013-02-07 23:33:00,-0.6,-11.8,29.45,NW,313,9.0,9.0,58,0.00,,---,0.00,VWS V14.01,2013-02-08 08:33:00,
2013-02-07 23:34:00,-0.6,-11.8,29.45,NW,304,6.0,12.0,58,0.00,,---,0.00,VWS V14.01,2013-02-08 08:34:00,
2013-02-07 23:35:00,-0.4,-11.6,29.44,NW,317,7.0,15.0,58,0.00,,---,0.00,VWS V14.01,2013-02-08 08:35:00,
2013-02-07 23:38:00,-0.7,-11.9,29.45,NW,321,6.0,9.0,58,0.00,,---,0.00,VWS V14.01,2013-02-08 08:38:00,
2013-02-07 23:39:00,-0.8,-12.0,29.45,NW,322,5.0,10.0,58,0.00,,---,0.00,VWS V14.01,2013-02-08 08:39:00,
2013-02-07 23:40:00,-0.7,-11.9,29.45,WNW,293,3.0,12.0,58,0.00,,---,0.00,VWS V14.01,2013-02-08 08:40:00,
2013-02-07 23:43:00,-0.9,-11.8,29.45,North,360,9.0,11.0,59,0.00,,---,0.00,VWS V14.01,2013-02-08 08:43:00,
2013-02-07 23:44:00,-0.9,-11.8,29.45,North,355,7.0,11.0,59,0.00,,---,0.00,VWS V14.01,2013-02-08 08:44:00,
2013-02-07 23:45:00,-0.9,-12.1,29.45,NE,39,7.0,10.0,58,0.00,,---,0.00,VWS V14.01,2013-02-08 08:45:00,
2013-02-07 23:48:00,-1.3,-10.5,29.45,West,263,4.0,8.0,64,0.00,,---,0.00,VWS V14.01,2013-02-08 08:48:00,
2013-02-07 23:49:00,-1.3,-10.5,29.45,WSW,250,3.0,8.0,64,0.00,,---,0.00,VWS V14.01,2013-02-08 08:49:00,
2013-02-07 23:50:00,-1.3,-10.5,29.45,SW,225,4.0,13.0,64,0.00,,---,0.00,VWS V14.01,2013-02-08 08:50:00,
2013-02-07 23:54:00,-1.5,-10.7,29.44,WNW,290,7.0,14.0,64,0.00,,---,0.00,VWS V14.01,2013-02-08 08:54:00,
2013-02-07 23:55:00,-1.4,-10.6,29.44,SW,236,3.0,9.0,64,0.00,,---,0.00,VWS V14.01,2013-02-08 08:55:00,
2013-02-07 23:59:00,-1.8,-11.0,29.45,WSW,252,4.0,10.0,64,0.00,,---,0.00,VWS V14.01,2013-02-08 08:59:00,